GFSGL_850_temp_054.txt.gz
Temp
7 7 6 6 5 5 4 4 4 3 2 2 1 1 0 0 0 0 -0 -0 -1 -2 -2 -2 -2 -3 -3 -4 -4 -4 -4 -4 -4 -4 -4 -4 -5 -5 -5 -5 -5 -5 -5
6 6 6 6 5 4 4 4 3 2 2 1 0 -0 -0 -0 -1 -1 -1 -2 -2 -2 -2 -3 -4 -4 -4 -4 -4 -4 -5 -5 -5 -6 -5 -6 -6 -6 -6 -6 -6 -6 -6
6 6 5 5 5 4 4 3 2 2 1 0 -0 -0 -1 -1 -1 -2 -3 -4 -4 -4 -4 -4 -4 -4 -5 -5 -5 -5 -5 -6 -7 -7 -7 -7 -7 -7 -7 -7 -7 -7 -7
6 5 5 5 4 3 3 2 1 1 0 -0 -0 -0 -1 -2 -2 -3 -4 -4 -4 -4 -4 -5 -5 -5 -5 -5 -6 -6 -7 -8 -9 -9 -9 -9 -9 -8 -8 -8 -8 -8 -8
5 5 4 4 3 2 2 1 1 0 -0 -0 -0 -1 -2 -2 -3 -3 -4 -4 -4 -5 -5 -5 -5 -5 -6 -6 -7 -8 -9 -9 -10 -10 -10 -10 -9 -9 -9 -9 -9 -9 -8
4 4 3 3 2 1 1 1 0 0 -0 -0 -1 -1 -2 -3 -4 -4 -4 -4 -4 -5 -5 -5 -6 -6 -6 -7 -8 -8 -9 -10 -10 -11 -10 -10 -10 -9 -10 -9 -10 -10 -9
3 3 2 2 1 1 0 -0 -0 -0 -0 -1 -1 -2 -3 -4 -4 -4 -4 -5 -5 -5 -6 -6 -6 -7 -7 -8 -8 -8 -9 -9 -11 -11 -11 -10 -10 -10 -10 -10 -10 -10 -10
2 2 1 1 0 -0 -1 -1 -1 -1 -1 -1 -2 -3 -4 -4 -4 -5 -5 -6 -5 -6 -7 -7 -7 -8 -8 -8 -8 -9 -9 -10 -11 -11 -11 -11 -11 -11 -11 -11 -10 -10 -9
2 1 1 0 -0 -1 -1 -1 -2 -2 -2 -2 -3 -4 -4 -5 -5 -5 -5 -6 -6 -7 -7 -7 -8 -8 -8 -9 -9 -9 -9 -10 -11 -11 -11 -11 -11 -11 -11 -10 -10 -10 -9
1 2 1 -0 -2 -2 -2 -2 -3 -3 -3 -3 -3 -4 -5 -5 -5 -6 -6 -6 -7 -7 -7 -8 -9 -9 -9 -9 -9 -9 -10 -10 -11 -11 -11 -11 -11 -11 -11 -10 -10 -10 -10
1 1 -0 -1 -2 -2 -2 -2 -3 -3 -3 -4 -4 -5 -6 -6 -6 -6 -7 -7 -7 -8 -9 -9 -9 -9 -9 -9 -9 -9 -10 -11 -11 -12 -12 -12 -11 -11 -11 -11 -10 -10 -10
0 -0 -1 -2 -2 -2 -2 -3 -3 -3 -4 -4 -5 -6 -6 -6 -6 -7 -7 -7 -8 -8 -8 -9 -9 -10 -10 -9 -9 -10 -11 -11 -12 -12 -12 -12 -12 -11 -11 -11 -10 -10 -9
-1 -2 -2 -2 -3 -3 -3 -3 -4 -4 -5 -5 -6 -6 -6 -6 -7 -7 -7 -7 -8 -8 -9 -9 -9 -10 -9 -10 -10 -11 -11 -11 -12 -12 -12 -12 -12 -12 -12 -11 -10 -10 -9
-2 -2 -2 -3 -3 -4 -4 -5 -6 -6 -6 -6 -6 -6 -7 -7 -7 -7 -8 -8 -8 -8 -9 -9 -10 -10 -10 -10 -10 -11 -11 -11 -12 -12 -12 -12 -12 -12 -12 -12 -11 -10 -10
-2 -3 -3 -3 -4 -4 -6 -7 -7 -7 -7 -6 -6 -6 -7 -7 -7 -8 -8 -8 -8 -9 -9 -9 -10 -10 -10 -10 -10 -11 -11 -11 -12 -12 -12 -13 -13 -13 -12 -12 -11 -11 -10
-2 -3 -3 -4 -4 -5 -6 -7 -7 -7 -7 -7 -7 -7 -7 -8 -8 -8 -9 -9 -9 -9 -10 -10 -10 -10 -10 -10 -10 -10 -11 -11 -12 -12 -13 -13 -13 -13 -13 -12 -12 -11 -11
-3 -4 -4 -4 -5 -5 -6 -6 -6 -6 -7 -7 -7 -7 -8 -8 -8 -8 -9 -9 -10 -10 -10 -10 -10 -10 -10 -10 -10 -11 -11 -11 -12 -12 -13 -13 -13 -14 -13 -13 -12 -12 -12
-3 -3 -4 -4 -4 -5 -6 -6 -6 -6 -6 -6 -7 -7 -7 -8 -8 -8 -9 -9 -10 -10 -10 -10 -10 -10 -10 -10 -10 -11 -11 -11 -12 -13 -13 -13 -14 -14 -14 -13 -13 -13 -12
-3 -4 -4 -4 -4 -5 -5 -6 -6 -6 -6 -6 -6 -7 -7 -7 -8 -8 -8 -9 -9 -9 -10 -10 -9 -9 -9 -10 -10 -10 -11 -11 -12 -12 -13 -13 -13 -14 -14 -14 -13 -13 -13
-4 -4 -4 -4 -5 -5 -5 -6 -6 -7 -7 -6 -6 -7 -7 -7 -7 -7 -8 -8 -8 -9 -9 -9 -9 -9 -9 -9 -10 -10 -11 -12 -12 -12 -13 -13 -14 -14 -14 -14 -14 -14 -13
-4 -4 -4 -4 -5 -5 -6 -7 -7 -7 -7 -7 -7 -7 -7 -7 -7 -8 -8 -8 -8 -8 -8 -9 -9 -9 -9 -9 -10 -10 -11 -12 -12 -13 -13 -13 -13 -13 -14 -14 -14 -14 -14
-5 -5 -5 -5 -5 -6 -7 -7 -8 -7 -7 -7 -7 -7 -7 -7 -7 -7 -7 -8 -8 -8 -8 -9 -9 -9 -9 -9 -10 -10 -11 -12 -12 -12 -13 -12 -12 -13 -14 -14 -14 -14 -14
-7 -7 -6 -6 -6 -6 -7 -7 -7 -7 -8 -8 -8 -7 -7 -7 -7 -7 -7 -7 -7 -8 -8 -8 -8 -9 -9 -9 -10 -10 -11 -11 -12 -12 -12 -12 -12 -12 -13 -13 -14 -14 -13
-8 -8 -7 -7 -7 -7 -8 -8 -8 -8 -8 -8 -8 -7 -8 -8 -8 -8 -8 -8 -8 -7 -8 -8 -8 -8 -9 -9 -10 -10 -10 -11 -11 -11 -11 -12 -12 -12 -12 -12 -13 -14 -13
-9 -8 -8 -7 -8 -8 -9 -9 -9 -9 -9 -9 -9 -9 -9 -9 -9 -8 -8 -8 -8 -8 -8 -8 -8 -8 -9 -9 -10 -10 -10 -11 -11 -11 -11 -12 -12 -12 -12 -12 -12 -13 -13
-9 -9 -9 -9 -10 -10 -10 -11 -11 -11 -12 -12 -12 -11 -11 -11 -10 -10 -9 -8 -8 -8 -8 -8 -8 -8 -8 -9 -10 -10 -11 -10 -11 -11 -12 -12 -12 -12 -12 -12 -13 -13 -13

GFSGL_850_temp_057.txt.gz
Temp
9 8 8 7 7 6 5 4 4 4 3 3 2 2 1 0 -0 -0 -1 -1 -1 -1 -2 -2 -3 -3 -4 -4 -4 -5 -5 -5 -5 -5 -5 -5 -5 -5 -6 -6 -6 -6 -6
9 8 7 7 5 4 4 4 4 3 3 2 2 1 0 -0 -1 -1 -1 -1 -2 -3 -3 -4 -4 -4 -4 -5 -5 -5 -5 -5 -5 -6 -6 -6 -6 -7 -8 -7 -7 -7 -7
7 7 6 5 5 4 4 4 3 3 2 2 1 1 -0 -1 -1 -1 -1 -2 -3 -3 -4 -4 -4 -5 -5 -5 -5 -5 -5 -6 -6 -7 -8 -8 -8 -8 -9 -9 -8 -8 -8
7 6 5 4 3 4 4 3 3 2 1 1 0 -0 -1 -1 -1 -1 -2 -3 -3 -4 -4 -5 -5 -5 -5 -5 -5 -6 -6 -7 -8 -8 -9 -9 -10 -10 -9 -9 -9 -9 -9
6 5 5 4 4 3 3 2 2 1 1 0 -0 -0 -1 -1 -1 -2 -3 -4 -4 -5 -5 -5 -6 -6 -5 -6 -6 -7 -7 -8 -9 -9 -9 -10 -10 -10 -10 -10 -10 -10 -9
5 4 4 3 3 3 2 2 2 1 0 -0 -0 -1 -1 -1 -2 -3 -4 -4 -5 -5 -6 -5 -6 -6 -6 -6 -7 -7 -8 -9 -9 -9 -10 -11 -11 -11 -10 -11 -10 -10 -10
4 4 3 2 2 2 2 2 0 -0 -1 -1 -1 -2 -2 -2 -2 -3 -4 -4 -5 -5 -6 -6 -6 -6 -7 -7 -7 -8 -8 -8 -9 -10 -11 -11 -11 -11 -11 -11 -11 -11 -10
3 2 1 1 0 1 0 -0 -1 -1 -1 -1 -2 -2 -3 -3 -3 -4 -5 -5 -5 -6 -6 -6 -6 -7 -7 -8 -8 -8 -9 -9 -9 -10 -12 -11 -11 -11 -11 -11 -11 -11 -10
1 1 0 -0 1 0 -0 -1 -2 -2 -2 -2 -2 -3 -3 -3 -4 -4 -5 -6 -6 -6 -6 -6 -7 -7 -8 -8 -9 -9 -9 -8 -9 -10 -11 -11 -11 -11 -11 -11 -11 -11 -10
1 1 0 0 0 -1 -2 -2 -2 -2 -3 -3 -3 -4 -4 -4 -5 -6 -6 -6 -6 -7 -7 -7 -8 -8 -9 -9 -9 -9 -9 -9 -9 -10 -10 -11 -11 -11 -11 -11 -11 -11 -11
1 -0 -0 -0 -1 -1 -1 -2 -2 -3 -3 -3 -4 -4 -4 -5 -6 -6 -7 -7 -7 -7 -7 -8 -8 -9 -9 -9 -9 -10 -10 -10 -11 -11 -11 -11 -11 -12 -12 -11 -11 -11 -11
-0 -1 -1 -1 -2 -2 -2 -2 -2 -3 -4 -5 -5 -5 -5 -6 -6 -6 -7 -7 -7 -7 -8 -8 -8 -9 -9 -10 -10 -10 -10 -11 -11 -11 -12 -12 -12 -12 -12 -12 -11 -11 -10
-1 -1 -1 -2 -2 -3 -3 -3 -3 -3 -4 -5 -6 -6 -5 -6 -6 -7 -7 -7 -7 -8 -8 -8 -9 -9 -9 -10 -10 -10 -11 -11 -11 -12 -12 -12 -12 -12 -12 -12 -12 -11 -10
-1 -1 -2 -2 -3 -3 -3 -3 -4 -5 -5 -6 -7 -6 -6 -6 -7 -7 -7 -8 -8 -8 -8 -8 -9 -9 -9 -10 -10 -10 -11 -11 -11 -12 -12 -12 -12 -12 -12 -12 -12 -11 -11
-2 -2 -2 -2 -2 -3 -3 -4 -5 -5 -6 -7 -7 -7 -7 -7 -7 -7 -8 -8 -8 -8 -8 -9 -9 -10 -10 -10 -10 -10 -10 -11 -11 -11 -12 -12 -12 -13 -12 -12 -12 -12 -12
-2 -2 -2 -2 -2 -3 -4 -4 -4 -4 -5 -6 -6 -7 -7 -7 -7 -8 -8 -8 -9 -9 -9 -9 -10 -10 -10 -10 -10 -10 -10 -11 -11 -11 -12 -12 -13 -13 -13 -12 -12 -13 -12
-2 -2 -2 -3 -4 -4 -4 -4 -4 -4 -5 -6 -6 -6 -6 -7 -7 -8 -8 -8 -9 -9 -10 -10 -10 -10 -10 -10 -10 -10 -10 -11 -11 -11 -11 -12 -13 -13 -13 -13 -13 -13 -12
-2 -3 -3 -3 -3 -4 -4 -4 -4 -5 -5 -5 -6 -6 -6 -7 -7 -7 -8 -8 -8 -9 -9 -10 -10 -10 -10 -10 -10 -10 -10 -10 -11 -11 -12 -12 -13 -13 -13 -14 -13 -13 -13
-4 -4 -4 -5 -4 -4 -4 -4 -4 -5 -6 -6 -6 -6 -6 -6 -7 -7 -7 -8 -8 -8 -8 -9 -9 -9 -10 -9 -10 -10 -10 -10 -11 -11 -12 -12 -13 -13 -13 -14 -14 -13 -13
-5 -6 -6 -6 -6 -5 -5 -5 -5 -5 -6 -7 -7 -7 -7 -7 -7 -7 -7 -7 -8 -8 -8 -8 -9 -9 -9 -9 -9 -9 -10 -10 -10 -11 -12 -12 -13 -13 -13 -14 -14 -14 -14
-7 -7 -7 -7 -7 -7 -7 -6 -6 -7 -8 -7 -7 -7 -8 -8 -8 -7 -7 -7 -7 -7 -8 -8 -8 -8 -9 -9 -9 -10 -10 -10 -10 -11 -12 -12 -13 -12 -13 -13 -14 -14 -13
-9 -9 -9 -8 -8 -8 -7 -6 -7 -7 -7 -7 -7 -8 -7 -8 -7 -8 -7 -7 -7 -7 -7 -8 -8 -8 -8 -9 -9 -9 -10 -10 -10 -11 -11 -12 -12 -12 -13 -13 -14 -14 -13
-10 -9 -9 -9 -8 -8 -7 -7 -7 -8 -8 -8 -8 -8 -7 -8 -8 -8 -8 -8 -8 -7 -7 -7 -7 -8 -8 -8 -9 -9 -9 -10 -10 -11 -11 -11 -12 -12 -12 -12 -13 -13 -13
-11 -10 -9 -9 -9 -8 -9 -8 -9 -9 -9 -9 -9 -10 -9 -9 -9 -9 -8 -8 -8 -8 -8 -8 -8 -8 -8 -8 -8 -9 -9 -10 -10 -10 -11 -11 -12 -12 -12 -12 -13 -13 -12
-12 -12 -11 -11 -11 -11 -11 -11 -11 -12 -12 -12 -12 -12 -12 -11 -11 -11 -10 -10 -9 -8 -8 -9 -8 -8 -8 -8 -8 -9 -9 -10 -10 -10 -11 -11 -12 -12 -12 -12 -12 -13 -12
-13 -13 -13 -13 -13 -13 -13 -14 -14 -14 -14 -14 -13 -13 -14 -13 -13 -12 -12 -11 -10 -9 -9 -9 -9 -9 -8 -8 -8 -9 -10 -10 -10 -11 -11 -12 -12 -12 -12 -12 -13 -13 -13

GFSGL_850_temp_060.txt.gz
Temp
11 10 10 9 8 6 6 6 6 5 4 4 4 3 2 2 1 1 -0 -1 -1 -1 -2 -2 -3 -4 -4 -4 -4 -4 -5 -5 -6 -5 -5 -5 -6 -6 -6 -6 -7 -7 -7
10 9 8 7 6 5 4 4 4 4 4 3 3 2 2 1 0 -0 -1 -1 -1 -2 -2 -3 -4 -5 -5 -5 -5 -5 -5 -5 -6 -6 -6 -6 -7 -7 -7 -8 -8 -8 -9
8 7 7 6 5 4 4 3 3 3 3 2 2 2 1 0 -0 -1 -1 -1 -2 -3 -3 -3 -4 -4 -5 -5 -5 -5 -6 -6 -6 -7 -7 -7 -7 -7 -8 -9 -9 -9 -9
7 7 6 5 4 4 3 3 3 3 2 2 2 0 0 -0 -1 -1 -1 -2 -2 -4 -4 -5 -5 -5 -5 -5 -6 -6 -6 -6 -7 -8 -8 -8 -8 -9 -10 -10 -10 -10 -10
6 6 5 4 4 3 3 3 2 2 2 2 0 -0 -0 -1 -1 -1 -2 -2 -3 -4 -5 -5 -5 -6 -6 -6 -6 -6 -7 -7 -8 -8 -8 -9 -9 -10 -11 -11 -11 -10 -10
6 6 5 4 4 3 2 2 2 1 1 1 -0 -1 -1 -2 -2 -2 -3 -3 -4 -4 -5 -5 -6 -6 -6 -6 -7 -7 -7 -8 -8 -9 -9 -9 -10 -11 -11 -11 -11 -11 -11
6 5 4 3 2 2 2 1 1 0 -0 -1 -1 -1 -2 -2 -3 -3 -3 -4 -4 -5 -5 -5 -6 -6 -7 -7 -7 -7 -8 -8 -9 -9 -9 -9 -10 -11 -12 -11 -11 -11 -11
4 3 2 2 2 2 1 0 0 -1 -1 -1 -1 -2 -2 -3 -3 -4 -4 -4 -5 -5 -6 -6 -7 -7 -7 -7 -8 -8 -8 -9 -9 -9 -9 -10 -11 -11 -12 -12 -11 -11 -11
3 2 2 2 2 1 0 -0 -1 -1 -2 -2 -2 -2 -3 -3 -4 -4 -5 -5 -6 -6 -6 -7 -7 -7 -7 -8 -8 -9 -9 -9 -9 -9 -10 -11 -11 -11 -12 -12 -12 -12 -11
1 2 1 1 1 0 -0 -1 -1 -2 -2 -3 -3 -3 -4 -4 -4 -5 -5 -6 -7 -7 -7 -7 -7 -8 -8 -8 -9 -9 -9 -9 -9 -10 -10 -10 -11 -11 -12 -12 -12 -12 -12
1 1 1 0 -0 -1 -1 -1 -2 -2 -2 -2 -3 -4 -5 -5 -5 -5 -6 -6 -7 -7 -7 -7 -8 -8 -8 -9 -9 -9 -9 -10 -10 -11 -11 -11 -11 -11 -12 -12 -12 -12 -12
1 1 1 0 -0 -1 -1 -2 -2 -2 -2 -3 -3 -4 -5 -5 -6 -6 -6 -6 -7 -7 -7 -7 -8 -8 -9 -9 -9 -10 -10 -10 -11 -11 -11 -11 -11 -12 -12 -12 -12 -12 -12
1 0 -0 -1 -1 -1 -2 -2 -2 -3 -3 -3 -4 -4 -4 -6 -6 -6 -6 -7 -7 -7 -7 -8 -8 -8 -9 -9 -9 -10 -10 -10 -11 -11 -11 -11 -12 -12 -12 -12 -11 -12 -11
-0 -1 -1 -1 -1 -2 -2 -2 -3 -3 -4 -4 -5 -5 -5 -6 -7 -7 -7 -7 -7 -8 -8 -8 -8 -8 -9 -9 -9 -10 -10 -10 -11 -11 -11 -11 -12 -12 -12 -12 -12 -12 -11
-1 -1 -1 -2 -2 -2 -2 -2 -3 -3 -3 -4 -5 -5 -6 -6 -6 -7 -7 -8 -8 -8 -8 -9 -9 -9 -9 -9 -10 -10 -10 -10 -11 -11 -11 -11 -12 -12 -12 -12 -12 -12 -12
-2 -2 -2 -2 -3 -3 -3 -3 -4 -4 -4 -4 -4 -5 -5 -6 -6 -7 -7 -8 -8 -8 -8 -9 -9 -9 -9 -10 -10 -10 -10 -10 -10 -11 -11 -11 -12 -12 -12 -13 -13 -13 -13
-2 -2 -3 -3 -4 -4 -4 -5 -5 -4 -4 -4 -4 -5 -5 -6 -6 -6 -7 -7 -8 -8 -8 -8 -9 -9 -10 -10 -10 -10 -10 -10 -11 -11 -11 -11 -12 -12 -12 -13 -13 -13 -13
-3 -4 -4 -4 -5 -5 -6 -6 -6 -6 -6 -5 -4 -5 -6 -6 -6 -7 -7 -7 -7 -8 -8 -8 -8 -8 -9 -10 -10 -10 -10 -10 -10 -11 -11 -11 -12 -12 -12 -13 -13 -13 -13
-5 -5 -6 -6 -7 -8 -8 -8 -8 -7 -7 -6 -6 -6 -6 -7 -7 -7 -7 -7 -7 -7 -7 -8 -8 -8 -8 -9 -10 -10 -10 -10 -10 -10 -11 -11 -12 -12 -12 -13 -13 -13 -13
-6 -7 -8 -8 -9 -9 -8 -8 -8 -8 -7 -6 -7 -7 -7 -7 -7 -7 -7 -7 -7 -7 -7 -7 -8 -8 -8 -8 -9 -9 -10 -10 -10 -10 -11 -11 -12 -12 -12 -13 -13 -13 -13
-8 -8 -9 -9 -9 -9 -9 -9 -8 -8 -7 -7 -7 -7 -8 -8 -8 -8 -8 -7 -8 -7 -7 -7 -7 -8 -8 -8 -8 -9 -9 -9 -10 -10 -10 -11 -12 -12 -13 -12 -13 -13 -13
-10 -11 -10 -10 -10 -10 -10 -10 -9 -8 -8 -8 -9 -8 -9 -8 -8 -8 -8 -8 -8 -8 -8 -8 -8 -7 -8 -8 -8 -9 -9 -9 -9 -10 -10 -11 -11 -12 -12 -12 -13 -12 -13
-11 -11 -11 -11 -11 -11 -11 -11 -11 -11 -11 -10 -10 -10 -10 -10 -10 -9 -9 -9 -9 -8 -8 -8 -8 -8 -8 -8 -8 -8 -8 -9 -9 -10 -10 -11 -11 -12 -12 -12 -12 -12 -13
-12 -12 -12 -12 -12 -13 -13 -13 -13 -13 -13 -13 -13 -13 -12 -12 -12 -12 -11 -10 -10 -9 -9 -8 -8 -8 -8 -8 -8 -8 -8 -9 -9 -10 -10 -11 -11 -12 -12 -12 -12 -12 -12
-12 -12 -13 -13 -14 -14 -14 -14 -14 -14 -15 -14 -14 -14 -14 -14 -13 -13 -13 -12 -12 -11 -10 -10 -9 -9 -9 -9 -8 -8 -8 -8 -9 -10 -10 -11 -11 -11 -12 -12 -12 -12 -12
-13 -13 -14 -14 -15 -15 -15 -16 -16 -16 -16 -16 -16 -16 -15 -15 -15 -14 -13 -13 -13 -12 -12 -11 -10 -9 -9 -8 -8 -8 -8 -9 -9 -10 -10 -11 -11 -11 -12 -12 -12 -12 -12

GFSGL_850_temp_063.txt.gz
Temp
11 11 10 10 9 8 7 6 5 5 4 4 3 3 3 3 2 1 1 0 -1 -1 -1 -2 -2 -3 -3 -4 -4 -5 -5 -5 -5 -5 -6 -6 -6 -7 -7 -7 -7 -7 -7
11 11 10 9 8 6 6 6 4 4 4 3 3 3 3 2 1 1 0 -1 -1 -1 -2 -2 -3 -4 -4 -4 -5 -5 -5 -6 -6 -6 -6 -7 -7 -7 -7 -7 -7 -8 -9
10 8 7 6 6 6 5 4 4 4 3 3 3 2 2 1 0 -0 -1 -1 -2 -2 -2 -3 -4 -4 -4 -5 -5 -5 -6 -6 -6 -6 -7 -7 -7 -7 -7 -8 -8 -9 -9
8 8 7 7 7 6 5 4 3 3 3 3 2 1 1 0 -0 -1 -1 -2 -2 -2 -3 -4 -5 -5 -5 -5 -6 -6 -6 -6 -7 -7 -8 -8 -8 -8 -8 -9 -9 -10 -10
8 8 7 7 6 4 4 3 3 3 3 2 1 1 1 -0 -1 -1 -2 -2 -3 -3 -4 -4 -5 -5 -5 -6 -6 -7 -7 -7 -8 -8 -8 -8 -8 -9 -10 -10 -11 -10 -10
7 7 6 5 4 3 2 2 3 3 1 1 1 0 -0 -1 -2 -2 -3 -3 -4 -4 -4 -5 -5 -5 -6 -6 -7 -7 -7 -8 -8 -9 -9 -9 -9 -9 -10 -11 -11 -11 -12
6 5 4 3 2 2 2 2 2 2 1 1 -0 -1 -1 -1 -2 -2 -3 -4 -4 -4 -5 -6 -5 -6 -6 -7 -7 -7 -8 -8 -9 -9 -9 -9 -9 -10 -11 -11 -12 -12 -12
5 4 3 2 2 2 2 1 1 1 0 -0 -1 -1 -1 -2 -2 -3 -4 -4 -5 -5 -6 -6 -6 -7 -7 -7 -8 -8 -9 -9 -9 -9 -9 -9 -10 -10 -11 -12 -12 -12 -12
3 2 2 2 1 1 1 1 1 1 -0 -1 -1 -1 -2 -2 -3 -4 -4 -5 -5 -6 -7 -6 -7 -7 -7 -8 -8 -9 -9 -9 -9 -9 -9 -10 -11 -11 -12 -12 -12 -12 -12
2 2 2 1 0 1 1 1 0 -0 -1 -1 -2 -2 -2 -2 -4 -5 -5 -5 -5 -6 -7 -7 -7 -7 -8 -8 -9 -9 -9 -9 -9 -9 -10 -10 -11 -11 -11 -12 -12 -13 -13
2 1 1 1 1 1 0 -0 -1 -1 -1 -2 -2 -2 -3 -3 -4 -5 -6 -6 -6 -6 -7 -7 -7 -8 -8 -8 -9 -9 -9 -10 -10 -10 -10 -10 -11 -11 -12 -12 -12 -12 -12
1 0 1 0 0 -0 -1 -1 -1 -2 -2 -2 -2 -3 -3 -3 -4 -4 -6 -7 -6 -7 -7 -7 -7 -8 -8 -8 -9 -9 -9 -10 -10 -10 -11 -11 -11 -11 -12 -12 -12 -12 -12
0 0 -0 -0 -1 -1 -1 -2 -2 -2 -2 -3 -3 -3 -3 -4 -4 -5 -6 -6 -7 -7 -7 -7 -7 -8 -8 -8 -9 -9 -9 -10 -10 -11 -11 -11 -11 -11 -12 -12 -11 -12 -12
-1 -1 -1 -2 -2 -2 -2 -2 -3 -3 -3 -3 -3 -4 -4 -4 -4 -5 -6 -7 -7 -8 -7 -8 -8 -8 -8 -8 -9 -9 -9 -10 -10 -10 -10 -11 -11 -11 -12 -12 -12 -12 -12
-1 -1 -1 -2 -2 -2 -2 -3 -3 -3 -4 -4 -4 -4 -5 -4 -4 -5 -6 -6 -7 -7 -8 -8 -8 -8 -9 -9 -9 -9 -9 -10 -10 -10 -11 -11 -11 -12 -12 -12 -12 -12 -12
-1 -2 -2 -2 -3 -3 -3 -3 -4 -4 -5 -5 -6 -5 -5 -5 -5 -5 -6 -6 -7 -7 -8 -8 -8 -8 -9 -9 -9 -9 -10 -10 -10 -10 -11 -11 -11 -12 -12 -12 -13 -13 -13
-2 -3 -3 -3 -4 -4 -5 -6 -7 -5 -8 -7 -7 -7 -7 -6 -6 -6 -6 -7 -7 -7 -7 -8 -8 -8 -8 -8 -9 -10 -10 -10 -10 -11 -11 -11 -11 -12 -12 -12 -12 -13 -13
-3 -4 -4 -5 -5 -6 -7 -9 -10 -10 -9 -8 -7 -8 -7 -7 -7 -7 -7 -7 -7 -7 -7 -7 -7 -8 -8 -8 -8 -9 -10 -10 -10 -10 -11 -11 -12 -12 -12 -12 -12 -12 -13
-5 -5 -6 -6 -7 -8 -9 -9 -9 -10 -10 -9 -8 -7 -7 -7 -7 -7 -8 -8 -8 -8 -7 -8 -8 -8 -7 -8 -8 -9 -9 -10 -10 -10 -10 -11 -11 -11 -12 -12 -12 -12 -13
-6 -7 -8 -9 -9 -9 -10 -11 -11 -11 -10 -10 -9 -9 -8 -8 -8 -7 -7 -8 -8 -8 -8 -8 -8 -8 -7 -8 -8 -8 -9 -9 -10 -10 -10 -10 -11 -11 -12 -12 -12 -12 -13
-7 -8 -9 -10 -11 -11 -11 -11 -11 -11 -11 -11 -11 -11 -10 -10 -9 -9 -8 -8 -9 -9 -9 -8 -8 -8 -8 -8 -8 -8 -8 -9 -9 -10 -10 -10 -11 -11 -12 -12 -12 -12 -12
-9 -10 -10 -11 -11 -12 -12 -13 -12 -13 -13 -12 -12 -12 -11 -11 -11 -10 -10 -10 -9 -9 -9 -9 -8 -8 -8 -8 -8 -8 -8 -8 -9 -9 -10 -10 -10 -11 -12 -12 -12 -12 -12
-11 -11 -11 -11 -12 -12 -13 -13 -13 -14 -14 -14 -14 -13 -13 -13 -13 -13 -12 -12 -11 -11 -10 -10 -9 -9 -9 -8 -8 -8 -8 -8 -8 -9 -9 -10 -10 -11 -12 -12 -12 -12 -12
-12 -12 -12 -13 -13 -13 -14 -14 -14 -15 -15 -15 -15 -15 -15 -14 -14 -14 -14 -13 -13 -12 -12 -11 -11 -10 -9 -9 -9 -9 -8 -8 -8 -9 -9 -10 -10 -11 -11 -12 -12 -12 -12
-13 -13 -13 -14 -14 -14 -15 -15 -15 -15 -15 -16 -16 -16 -16 -16 -16 -15 -15 -15 -14 -14 -13 -12 -12 -11 -10 -9 -9 -9 -9 -9 -8 -9 -9 -10 -10 -11 -11 -12 -12 -12 -12
-14 -14 -15 -15 -15 -15 -16 -16 -16 -16 -16 -17 -17 -17 -17 -17 -17 -17 -16 -16 -15 -15 -14 -13 -13 -12 -11 -10 -9 -9 -9 -9 -9 -9 -9 -10 -10 -11 -11 -12 -12 -12 -12

GFSGL_850_temp_069.txt.gz
Temp
13 12 11 11 11 10 10 9 8 7 5 5 5 6 3 3 3 2 2 1 1 -0 -1 -1 -2 -2 -2 -2 -3 -4 -4 -5 -5 -4 -5 -6 -6 -6 -7 -7 -7 -7 -6
13 12 11 11 11 10 8 8 6 5 6 5 5 4 3 2 2 1 1 0 -0 -1 -1 -2 -2 -2 -3 -3 -4 -5 -5 -5 -6 -5 -5 -6 -6 -7 -7 -7 -7 -7 -7
13 12 12 10 9 9 6 6 6 5 5 4 4 3 3 2 1 1 1 0 -0 -1 -1 -2 -2 -3 -3 -4 -5 -5 -5 -6 -6 -6 -6 -7 -7 -7 -8 -9 -9 -7 -7
13 12 9 8 6 5 6 4 5 4 3 3 3 2 2 1 1 1 -0 -0 -1 -1 -2 -2 -3 -3 -4 -4 -5 -5 -6 -6 -6 -7 -7 -7 -8 -8 -9 -9 -9 -9 -10
9 8 7 5 5 5 4 3 3 2 2 2 2 1 1 1 0 -0 -0 -1 -1 -1 -2 -2 -3 -4 -4 -4 -5 -6 -6 -7 -7 -7 -7 -7 -8 -8 -9 -9 -10 -10 -10
8 7 5 5 5 3 3 3 2 2 1 1 1 1 1 1 -0 -1 -1 -1 -1 -2 -2 -3 -4 -4 -5 -5 -5 -6 -6 -7 -7 -7 -7 -8 -8 -8 -10 -10 -11 -10 -10
6 5 5 4 3 2 2 1 1 1 1 1 1 1 0 0 -1 -1 -1 -2 -2 -2 -3 -4 -4 -5 -5 -5 -6 -6 -6 -7 -7 -8 -8 -8 -9 -10 -10 -11 -11 -11 -11
5 5 3 2 2 1 0 1 0 1 0 0 0 -0 -1 -1 -1 -1 -2 -2 -2 -2 -3 -4 -5 -5 -5 -6 -6 -7 -7 -7 -7 -8 -8 -9 -10 -10 -10 -11 -11 -12 -12
4 3 2 2 1 1 1 1 0 0 0 0 -0 -1 -1 -1 -2 -2 -2 -3 -3 -3 -3 -4 -4 -5 -5 -6 -7 -7 -7 -7 -8 -8 -9 -9 -9 -10 -10 -12 -11 -11 -11
2 2 2 1 1 1 0 -0 -0 -0 -0 -1 -1 -1 -2 -2 -3 -3 -3 -3 -4 -4 -4 -4 -4 -5 -6 -6 -7 -7 -8 -7 -8 -8 -9 -10 -10 -10 -10 -11 -12 -12 -11
2 2 1 1 1 0 -0 -0 -0 -0 -1 -1 -1 -2 -2 -3 -3 -3 -4 -4 -5 -5 -5 -4 -4 -4 -6 -7 -7 -7 -7 -7 -8 -9 -9 -10 -10 -10 -11 -11 -12 -12 -12
1 1 1 1 -0 -0 -0 -0 -1 -1 -2 -2 -2 -2 -3 -3 -3 -3 -4 -5 -5 -6 -6 -6 -6 -5 -6 -7 -7 -7 -7 -8 -8 -8 -9 -10 -10 -11 -11 -11 -11 -11 -12
1 0 0 -0 -0 -0 -1 -1 -2 -2 -2 -3 -3 -3 -4 -6 -8 -8 -8 -8 -7 -7 -7 -7 -6 -7 -7 -7 -7 -7 -7 -8 -8 -8 -9 -10 -10 -10 -11 -11 -11 -11 -11
0 -0 -0 -0 -1 -1 -1 -2 -2 -3 -4 -5 -7 -8 -7 -8 -9 -9 -9 -9 -9 -8 -8 -7 -7 -7 -7 -8 -8 -7 -7 -8 -8 -9 -9 -9 -9 -10 -10 -11 -11 -12 -12
-0 -1 -1 -1 -1 -1 -2 -3 -4 -5 -6 -7 -8 -8 -9 -9 -9 -9 -8 -8 -8 -8 -8 -8 -7 -7 -7 -8 -8 -7 -8 -8 -9 -9 -9 -9 -9 -10 -10 -11 -11 -12 -12
-1 -1 -1 -2 -2 -3 -4 -4 -5 -6 -7 -8 -9 -9 -10 -10 -9 -8 -8 -8 -8 -7 -7 -7 -7 -7 -7 -7 -7 -7 -8 -8 -8 -8 -9 -9 -10 -10 -11 -11 -11 -12 -12
-2 -2 -3 -3 -4 -4 -5 -5 -6 -7 -8 -8 -9 -9 -10 -10 -10 -9 -9 -8 -8 -8 -8 -8 -7 -7 -7 -8 -8 -8 -8 -8 -8 -9 -9 -10 -10 -10 -11 -11 -12 -12 -12
-3 -4 -4 -5 -5 -6 -7 -7 -8 -9 -9 -10 -10 -10 -10 -10 -10 -10 -10 -9 -8 -9 -9 -9 -9 -9 -8 -8 -8 -8 -8 -8 -8 -8 -9 -9 -10 -10 -11 -11 -12 -12 -13
-5 -5 -6 -6 -7 -8 -8 -9 -9 -10 -10 -10 -10 -10 -10 -11 -11 -11 -11 -11 -11 -11 -11 -11 -10 -10 -9 -9 -9 -9 -9 -9 -9 -9 -9 -9 -10 -10 -11 -11 -11 -12 -12
-6 -7 -8 -8 -9 -9 -10 -10 -10 -11 -11 -11 -12 -12 -12 -11 -12 -12 -12 -12 -13 -13 -12 -12 -11 -11 -11 -10 -10 -9 -9 -10 -9 -9 -9 -9 -10 -10 -10 -11 -11 -11 -12
-8 -8 -9 -9 -10 -10 -11 -11 -11 -12 -13 -13 -13 -13 -13 -14 -14 -14 -14 -14 -14 -14 -14 -13 -13 -12 -12 -11 -11 -10 -10 -10 -10 -10 -9 -9 -10 -10 -10 -10 -11 -11 -12
-9 -9 -10 -10 -11 -11 -12 -12 -13 -13 -14 -14 -14 -14 -14 -15 -15 -15 -15 -15 -15 -15 -15 -15 -14 -14 -13 -13 -12 -11 -10 -10 -10 -11 -10 -10 -10 -10 -10 -10 -11 -11 -12
-10 -11 -11 -11 -12 -12 -13 -13 -14 -14 -15 -15 -15 -15 -15 -16 -16 -16 -16 -16 -16 -16 -16 -16 -15 -15 -14 -14 -14 -13 -12 -11 -10 -10 -10 -11 -10 -10 -10 -10 -10 -11 -11
-11 -12 -12 -13 -13 -13 -14 -14 -15 -15 -16 -16 -16 -16 -16 -16 -17 -17 -17 -17 -17 -16 -16 -16 -16 -16 -15 -15 -14 -14 -13 -12 -11 -10 -10 -10 -10 -10 -10 -10 -10 -11 -11
-13 -13 -13 -14 -14 -15 -15 -16 -16 -16 -17 -17 -17 -17 -17 -17 -17 -17 -17 -17 -17 -17 -17 -17 -16 -16 -16 -15 -15 -14 -13 -13 -12 -11 -10 -10 -10 -10 -10 -10 -10 -11 -11
-14 -14 -15 -15 -16 -16 -17 -17 -17 -18 -18 -18 -18 -18 -18 -18 -18 -18 -18 -18 -18 -18 -18 -17 -17 -17 -16 -15 -15 -14 -13 -13 -12 -11 -10 -10 -10 -10 -10 -10 -10 -11 -11

GFSGL_850_temp_072.txt.gz
Temp
14 13 12 10 10 10 9 9 8 7 8 6 5 5 5 4 4 3 2 1 1 1 0 -0 -0 -1 -1 -1 -1 -1 -1 -1 -1 -1 -1 -1 -3 -4 -4 -5 -5 -6 -6
11 11 10 10 9 10 9 8 8 6 5 6 6 5 4 3 3 2 1 1 1 0 0 -0 -1 -1 -1 -1 -1 -2 -2 -2 -2 -2 -3 -2 -3 -4 -5 -5 -6 -6 -7
11 12 12 11 10 9 8 8 6 6 5 4 4 4 4 3 2 1 1 1 0 -0 -0 -0 -1 -1 -1 -1 -2 -2 -2 -2 -2 -3 -4 -3 -4 -5 -5 -5 -6 -6 -7
11 12 11 10 11 9 8 4 5 5 4 3 3 3 3 2 1 0 0 -0 -0 -0 -1 -1 -1 -1 -2 -2 -2 -2 -2 -3 -3 -4 -5 -5 -5 -5 -5 -5 -6 -6 -6
10 9 9 8 8 6 5 5 5 3 3 4 2 3 2 1 0 -0 -0 -1 -1 -1 -1 -2 -2 -2 -3 -3 -3 -3 -3 -4 -5 -6 -6 -5 -5 -4 -5 -5 -6 -7 -7
8 8 8 7 5 6 5 5 3 3 3 2 2 1 0 0 -0 0 0 -1 -1 -2 -1 -2 -2 -2 -3 -4 -4 -4 -4 -6 -6 -5 -5 -6 -5 -5 -5 -6 -6 -7 -7
8 7 5 5 5 4 3 3 3 2 1 1 0 1 0 -1 -0 -0 -0 -1 -2 -2 -2 -2 -2 -2 -3 -4 -5 -5 -6 -6 -6 -6 -6 -6 -6 -7 -7 -7 -7 -7 -7
6 5 5 5 4 3 2 2 1 1 1 -0 -0 -1 -1 -1 -0 -1 -1 -2 -3 -3 -3 -3 -3 -3 -3 -4 -4 -5 -5 -6 -6 -7 -7 -6 -7 -7 -8 -8 -8 -9 -9
5 4 4 3 2 1 1 1 0 -0 -0 -0 -1 -1 -2 -2 -2 -2 -2 -3 -4 -4 -3 -3 -3 -4 -4 -4 -5 -6 -6 -6 -7 -7 -7 -7 -8 -8 -9 -9 -9 -10 -9
4 3 1 1 1 1 0 -0 -0 -0 -1 -1 -2 -2 -2 -2 -3 -3 -3 -4 -4 -5 -5 -5 -5 -5 -5 -5 -6 -6 -6 -7 -7 -7 -8 -8 -8 -9 -9 -9 -10 -10 -10
2 1 1 1 1 1 0 0 -0 -1 -1 -1 -1 -1 -1 -2 -3 -3 -3 -4 -6 -7 -7 -7 -6 -6 -6 -6 -6 -7 -7 -7 -7 -7 -7 -8 -8 -8 -9 -10 -10 -10 -10
1 1 1 1 0 0 -0 -1 -1 -1 -1 -1 -1 -1 -3 -5 -5 -6 -6 -7 -8 -8 -8 -8 -7 -7 -7 -7 -7 -7 -7 -7 -7 -7 -8 -8 -8 -8 -9 -9 -10 -10 -10
1 1 0 0 -0 -0 -0 -0 -1 -1 -2 -3 -4 -6 -7 -7 -7 -8 -8 -8 -8 -8 -8 -7 -7 -7 -7 -7 -7 -7 -7 -7 -7 -7 -7 -8 -8 -9 -9 -9 -10 -10 -10
1 0 -0 -0 -0 -0 -1 -1 -2 -2 -3 -5 -6 -7 -8 -8 -8 -10 -9 -9 -8 -8 -8 -7 -7 -7 -7 -7 -7 -7 -7 -8 -7 -7 -8 -8 -8 -8 -9 -9 -10 -10 -10
-0 -0 -0 -0 -1 -1 -2 -3 -3 -4 -4 -5 -7 -9 -10 -10 -11 -9 -9 -9 -9 -8 -8 -7 -7 -7 -7 -7 -7 -7 -7 -8 -8 -8 -8 -8 -8 -9 -9 -9 -10 -10 -10
-1 -1 -1 -1 -2 -3 -4 -6 -4 -6 -6 -7 -8 -8 -9 -9 -10 -9 -9 -9 -9 -8 -8 -8 -8 -7 -7 -7 -7 -7 -7 -7 -8 -8 -9 -9 -9 -9 -9 -9 -10 -10 -10
-1 -2 -2 -3 -4 -4 -5 -7 -8 -10 -8 -8 -8 -9 -9 -10 -10 -10 -9 -10 -10 -9 -11 -11 -11 -10 -8 -8 -7 -8 -7 -8 -8 -8 -8 -9 -9 -9 -9 -10 -10 -10 -10
-3 -3 -4 -4 -5 -6 -7 -8 -9 -10 -11 -11 -12 -10 -10 -10 -10 -10 -10 -10 -12 -12 -13 -13 -13 -12 -11 -10 -9 -8 -8 -8 -8 -8 -8 -8 -9 -9 -9 -10 -10 -10 -10
-4 -5 -5 -6 -7 -7 -8 -9 -11 -12 -12 -12 -13 -13 -13 -11 -11 -12 -12 -14 -15 -15 -15 -14 -15 -14 -13 -12 -11 -10 -9 -9 -9 -8 -9 -9 -9 -9 -9 -10 -10 -10 -10
-6 -6 -7 -7 -8 -9 -10 -10 -12 -13 -13 -14 -14 -15 -14 -13 -15 -15 -16 -16 -16 -16 -16 -16 -16 -16 -15 -14 -13 -12 -11 -10 -9 -9 -9 -9 -9 -9 -9 -10 -10 -10 -11
-7 -8 -8 -9 -9 -10 -10 -11 -14 -14 -15 -15 -15 -16 -13 -14 -16 -16 -17 -17 -17 -18 -18 -18 -18 -17 -17 -17 -15 -13 -12 -12 -11 -10 -10 -10 -9 -9 -9 -10 -10 -11 -11
-9 -9 -10 -10 -11 -11 -11 -12 -14 -16 -16 -17 -17 -17 -15 -16 -17 -18 -18 -18 -18 -19 -19 -19 -18 -18 -18 -17 -16 -14 -14 -13 -13 -12 -11 -10 -10 -10 -10 -10 -10 -11 -11
-10 -10 -11 -11 -12 -12 -13 -13 -14 -16 -17 -17 -18 -18 -18 -19 -19 -19 -19 -19 -19 -19 -18 -18 -18 -17 -18 -18 -16 -16 -15 -14 -14 -13 -12 -11 -11 -11 -10 -10 -10 -10 -11
-11 -11 -12 -13 -13 -14 -14 -15 -16 -17 -17 -18 -19 -19 -20 -20 -19 -20 -20 -20 -18 -18 -18 -18 -17 -17 -17 -17 -16 -16 -16 -15 -14 -13 -13 -12 -11 -11 -11 -10 -10 -10 -11
-13 -13 -14 -14 -15 -16 -16 -19 -19 -20 -20 -20 -20 -20 -20 -20 -20 -21 -21 -20 -18 -18 -18 -18 -18 -18 -17 -17 -16 -16 -16 -16 -15 -14 -13 -13 -11 -11 -11 -11 -10 -10 -10
-15 -16 -16 -17 -19 -20 -20 -20 -21 -21 -20 -20 -19 -19 -20 -20 -20 -21 -20 -19 -19 -19 -18 -18 -18 -18 -18 -17 -17 -16 -16 -15 -15 -15 -14 -13 -12 -11 -11 -11 -11 -11 -10

GFSGL_850_temp_075.txt.gz
Temp
14 12 11 11 11 10 10 9 9 8 7 6 6 5 4 4 4 4 3 3 3 2 2 2 2 1 1 1 1 1 1 1 0 0 1 0 -0 -1 -1 -2 -3 -4 -4
14 12 11 11 10 10 10 9 8 7 7 6 5 5 4 5 3 2 2 3 3 2 2 2 2 2 1 1 1 1 0 0 -0 -0 -0 -0 -1 -1 -2 -3 -4 -4 -4
14 11 10 10 10 11 10 10 9 8 6 5 5 4 4 3 2 2 3 2 2 2 2 1 1 1 1 1 1 0 0 0 -0 -0 -1 -1 -1 -2 -2 -4 -4 -4 -4
11 11 10 10 10 9 9 8 8 7 6 4 4 4 3 1 2 2 2 2 2 1 1 1 1 0 0 0 0 -0 -0 -1 -1 -1 -1 -2 -3 -3 -4 -4 -4 -4 -5
9 9 9 9 9 8 7 6 6 5 6 5 4 4 2 2 2 2 1 1 1 1 0 0 0 0 -0 -1 -1 -1 -2 -2 -2 -2 -2 -3 -4 -4 -4 -4 -5 -5 -5
8 8 8 8 7 7 6 6 5 4 4 3 4 2 2 2 2 1 1 1 0 -1 -0 -0 -0 -0 -0 -1 -1 -2 -3 -3 -4 -4 -4 -4 -4 -5 -5 -5 -5 -5 -5
7 7 7 7 6 5 5 4 3 3 3 2 2 2 1 1 1 0 0 -0 -1 -1 -1 -1 -1 -1 -1 -1 -2 -2 -3 -4 -4 -5 -5 -5 -5 -5 -5 -5 -6 -6 -6
7 7 6 5 5 4 3 2 2 2 1 2 1 1 1 0 0 -0 -1 -1 -2 -2 -2 -2 -2 -2 -2 -2 -3 -3 -3 -3 -4 -5 -6 -6 -6 -6 -6 -6 -7 -7 -7
5 4 4 3 4 3 2 2 2 1 1 1 1 0 0 -0 -1 -1 -1 -2 -3 -3 -3 -3 -3 -4 -4 -4 -4 -4 -4 -4 -5 -5 -5 -6 -6 -6 -6 -7 -7 -8 -8
3 2 3 4 2 2 2 1 1 1 1 0 -0 -1 -1 -2 -2 -3 -2 -3 -3 -4 -4 -5 -5 -5 -5 -6 -6 -6 -6 -5 -5 -6 -6 -6 -6 -6 -7 -7 -8 -9 -9
2 2 2 2 2 1 1 1 0 0 -0 -1 -1 -0 -1 -2 -3 -4 -3 -4 -5 -5 -5 -6 -6 -7 -7 -7 -7 -7 -7 -6 -6 -6 -6 -6 -6 -7 -7 -8 -8 -9 -9
2 1 1 1 1 0 0 -0 -1 -1 -2 -3 -1 -1 -3 -4 -5 -6 -6 -5 -5 -6 -7 -7 -7 -7 -6 -6 -7 -7 -7 -6 -7 -7 -7 -6 -7 -7 -7 -7 -8 -8 -9
1 1 0 0 -0 -1 -1 -1 -2 -2 -3 -4 -4 -5 -5 -5 -6 -7 -7 -6 -6 -6 -7 -7 -7 -6 -6 -6 -6 -7 -7 -7 -7 -7 -7 -7 -7 -7 -7 -7 -8 -8 -9
0 -0 -1 -1 -1 -2 -2 -2 -3 -3 -4 -4 -5 -6 -7 -7 -8 -8 -6 -7 -7 -8 -8 -8 -7 -7 -7 -7 -6 -6 -6 -7 -7 -7 -7 -7 -7 -7 -8 -8 -8 -8 -9
-1 -1 -2 -1 -2 -2 -2 -2 -3 -2 -3 -4 -5 -6 -7 -7 -9 -8 -8 -9 -9 -9 -9 -9 -8 -8 -8 -8 -7 -7 -7 -7 -7 -7 -7 -7 -7 -7 -8 -8 -8 -8 -9
-2 -2 -2 -2 -2 -3 -5 -4 -4 -4 -4 -5 -5 -7 -8 -8 -8 -9 -9 -9 -10 -9 -10 -10 -10 -10 -10 -10 -9 -8 -7 -7 -7 -7 -7 -7 -8 -8 -8 -8 -8 -9 -9
-3 -1 -2 -2 -4 -5 -5 -6 -6 -7 -7 -8 -8 -9 -8 -9 -9 -10 -10 -10 -10 -12 -11 -11 -12 -12 -12 -12 -11 -11 -9 -8 -8 -7 -7 -7 -8 -8 -8 -8 -8 -9 -9
-2 -3 -4 -4 -5 -6 -8 -7 -8 -9 -9 -10 -10 -11 -11 -10 -10 -11 -11 -11 -12 -12 -12 -12 -13 -13 -13 -13 -13 -13 -11 -10 -8 -8 -8 -8 -8 -8 -8 -8 -8 -9 -9
-3 -3 -4 -5 -5 -6 -7 -8 -9 -10 -11 -11 -11 -11 -12 -13 -11 -12 -14 -14 -14 -14 -14 -14 -14 -14 -15 -15 -15 -14 -14 -12 -11 -10 -9 -9 -8 -8 -8 -8 -8 -9 -9
-3 -5 -6 -6 -7 -8 -9 -10 -11 -11 -12 -12 -12 -12 -13 -14 -13 -14 -14 -14 -15 -15 -15 -16 -16 -16 -16 -16 -16 -16 -15 -14 -13 -12 -11 -10 -9 -9 -8 -8 -9 -9 -9
-7 -6 -7 -8 -9 -9 -10 -11 -12 -12 -13 -13 -13 -14 -14 -15 -15 -15 -15 -15 -16 -16 -17 -17 -17 -17 -17 -17 -17 -17 -17 -17 -16 -14 -13 -11 -10 -9 -9 -9 -9 -9 -9
-8 -8 -9 -9 -10 -12 -13 -12 -14 -14 -14 -14 -15 -15 -16 -17 -16 -16 -16 -16 -17 -18 -18 -18 -18 -18 -18 -18 -18 -18 -18 -18 -17 -16 -15 -13 -12 -10 -10 -9 -9 -9 -10
-9 -10 -11 -12 -13 -14 -14 -15 -15 -15 -16 -16 -16 -17 -17 -17 -17 -18 -18 -18 -19 -19 -19 -19 -20 -20 -20 -20 -20 -20 -19 -19 -19 -18 -16 -14 -13 -12 -11 -10 -9 -9 -10
-11 -12 -14 -15 -16 -15 -16 -16 -17 -17 -17 -17 -18 -18 -18 -18 -18 -19 -19 -19 -20 -20 -20 -21 -21 -21 -21 -21 -21 -21 -20 -20 -19 -18 -17 -15 -14 -13 -12 -11 -10 -9 -9
-15 -16 -16 -16 -17 -17 -17 -17 -17 -18 -18 -18 -19 -19 -19 -20 -20 -20 -20 -20 -21 -21 -21 -21 -20 -21 -21 -20 -19 -19 -19 -19 -18 -17 -16 -16 -15 -14 -12 -12 -10 -10 -10
-17 -17 -17 -18 -18 -18 -18 -18 -19 -19 -19 -20 -20 -21 -21 -21 -21 -21 -21 -22 -22 -22 -20 -21 -21 -20 -19 -19 -20 -20 -18 -17 -17 -17 -16 -16 -15 -14 -13 -12 -11 -10 -10

GFSGL_850_temp_081.txt.gz
Temp
14 14 14 14 14 13 13 13 13 13 10 10 9 9 8 7 7 7 6 5 5 5 5 3 2 2 2 2 2 2 1 1 1 1 1 1 0 0 -0 -0 -1 -1 -1
14 14 14 14 14 14 12 12 11 11 10 9 9 9 8 7 7 6 6 6 5 5 4 2 2 2 2 2 2 1 1 1 1 1 0 0 0 -0 -1 -1 -1 -2 -3
14 14 15 14 14 14 12 12 10 10 10 9 9 8 8 7 6 5 6 5 4 3 3 2 2 2 2 2 1 1 1 1 0 0 -0 -0 -0 -1 -1 -2 -2 -2 -2
15 15 14 14 13 14 13 13 10 10 10 9 9 8 7 6 6 5 4 4 3 2 2 2 2 2 1 1 1 0 0 -0 -0 -0 -1 -1 -1 -1 -2 -2 -2 -3 -3
15 15 15 14 14 13 14 12 10 9 9 9 8 6 6 6 5 4 4 3 2 2 2 2 2 1 1 1 -0 -0 -1 -1 -1 -1 -2 -2 -2 -2 -2 -3 -4 -4 -4
16 16 15 14 12 10 10 10 9 9 8 7 6 5 5 4 4 3 3 2 2 2 2 2 1 1 1 -0 -1 -1 -2 -2 -2 -2 -3 -3 -3 -4 -4 -4 -4 -5 -5
15 14 11 10 10 9 9 9 8 8 7 5 5 4 4 3 2 2 2 2 2 2 1 1 1 1 -0 -1 -2 -2 -2 -3 -3 -3 -4 -4 -5 -5 -5 -5 -4 -5 -5
10 10 10 9 8 8 8 7 7 6 5 5 4 3 2 2 1 2 2 1 1 1 1 0 -1 -1 -2 -2 -2 -2 -2 -3 -3 -4 -5 -5 -6 -6 -6 -6 -5 -6 -6
10 10 9 8 8 8 7 7 5 4 4 3 2 2 2 2 1 1 1 1 0 0 -0 -1 -2 -2 -2 -3 -2 -3 -3 -3 -4 -5 -6 -5 -6 -6 -7 -7 -6 -6 -6
10 9 8 7 6 6 5 4 4 3 3 2 2 2 1 1 1 0 0 -0 -1 -1 -1 -2 -2 -3 -3 -3 -4 -5 -5 -4 -6 -6 -6 -6 -6 -6 -6 -7 -6 -6 -6
8 8 7 6 5 5 4 3 2 2 2 1 1 1 1 0 -0 -0 -1 -1 -1 -2 -2 -2 -3 -3 -4 -5 -6 -6 -7 -7 -7 -7 -7 -6 -6 -6 -6 -7 -7 -7 -7
6 5 5 4 3 3 2 2 2 2 1 1 0 0 -0 -1 -1 -1 -1 -2 -2 -3 -3 -4 -4 -5 -5 -6 -7 -8 -8 -8 -8 -7 -7 -7 -7 -7 -6 -7 -7 -7 -7
4 3 2 2 2 2 1 1 1 1 1 0 0 -1 -1 -1 -2 -2 -3 -3 -4 -5 -5 -5 -6 -6 -7 -7 -8 -9 -9 -9 -9 -9 -8 -8 -7 -7 -7 -7 -7 -6 -7
3 2 2 2 1 1 1 1 0 -0 -0 -1 -1 -2 -2 -2 -3 -4 -5 -5 -6 -6 -6 -6 -7 -8 -9 -10 -10 -9 -10 -10 -11 -10 -9 -9 -8 -7 -7 -7 -7 -7 -7
2 1 1 0 -0 -0 -1 -1 -1 -2 -2 -3 -3 -3 -4 -4 -5 -5 -6 -6 -6 -7 -7 -8 -9 -10 -11 -11 -11 -11 -11 -11 -11 -11 -11 -9 -9 -9 -8 -7 -7 -7 -7
1 -0 -1 -1 -2 -2 -3 -2 -2 -3 -4 -4 -5 -5 -6 -6 -7 -7 -8 -8 -8 -9 -9 -10 -11 -12 -12 -12 -12 -13 -13 -13 -13 -13 -13 -12 -11 -10 -9 -8 -7 -7 -8
-1 -2 -2 -4 -5 -4 -4 -3 -3 -4 -5 -6 -6 -8 -8 -8 -9 -10 -10 -10 -10 -11 -11 -12 -13 -13 -13 -13 -14 -14 -15 -15 -15 -16 -14 -14 -13 -11 -10 -9 -8 -8 -8
-3 -5 -6 -6 -6 -6 -5 -6 -7 -7 -8 -8 -8 -9 -10 -10 -11 -11 -12 -12 -12 -13 -13 -13 -14 -14 -15 -15 -15 -16 -16 -17 -17 -16 -16 -15 -14 -14 -12 -11 -9 -8 -8
-4 -5 -6 -7 -7 -7 -8 -7 -7 -8 -10 -10 -10 -10 -11 -11 -12 -12 -13 -13 -13 -14 -14 -15 -15 -15 -16 -16 -17 -17 -17 -17 -18 -18 -17 -16 -16 -15 -13 -12 -11 -10 -9
-6 -7 -7 -7 -8 -9 -9 -9 -10 -10 -10 -11 -11 -12 -12 -13 -13 -13 -14 -14 -15 -15 -16 -16 -16 -17 -17 -17 -18 -18 -18 -18 -18 -18 -18 -19 -17 -16 -15 -14 -13 -11 -10
-8 -8 -9 -9 -9 -10 -11 -11 -10 -11 -12 -12 -13 -13 -14 -14 -14 -15 -16 -16 -16 -17 -17 -17 -18 -18 -18 -18 -19 -19 -19 -19 -19 -19 -20 -19 -18 -17 -16 -15 -14 -13 -12
-10 -10 -10 -10 -10 -11 -11 -12 -12 -13 -14 -14 -14 -15 -15 -15 -16 -17 -17 -17 -18 -18 -18 -19 -19 -19 -19 -20 -20 -20 -20 -20 -20 -20 -19 -19 -18 -17 -17 -16 -15 -13 -12
-10 -10 -11 -11 -12 -13 -13 -14 -14 -15 -15 -16 -16 -16 -17 -17 -18 -18 -18 -19 -19 -19 -19 -20 -20 -20 -20 -21 -21 -21 -21 -21 -20 -20 -21 -20 -19 -18 -17 -16 -15 -14 -13
-12 -12 -13 -14 -14 -15 -16 -16 -16 -17 -17 -17 -18 -18 -18 -19 -19 -19 -20 -20 -20 -20 -21 -21 -21 -21 -21 -21 -20 -20 -21 -21 -21 -21 -21 -20 -19 -18 -18 -17 -16 -15 -14
-14 -15 -15 -16 -16 -17 -17 -17 -18 -18 -18 -19 -19 -19 -20 -20 -20 -21 -21 -21 -21 -22 -22 -22 -22 -21 -21 -20 -20 -20 -21 -21 -21 -21 -21 -20 -20 -18 -18 -17 -16 -15 -15
-16 -17 -17 -18 -18 -18 -18 -19 -19 -19 -20 -20 -20 -20 -21 -21 -22 -22 -22 -23 -22 -22 -22 -22 -21 -21 -21 -20 -20 -20 -21 -20 -20 -20 -20 -20 -19 -18 -18 -17 -16 -16 -15

GFSGL_850_temp_084.txt.gz
Temp
13 13 13 13 13 13 13 12 12 12 13 13 12 11 11 10 10 9 8 7 7 6 6 5 4 4 4 3 2 2 2 2 1 1 1 1 1 0 0 -0 -0 -1 -1
14 14 14 13 13 13 13 12 11 12 12 12 12 10 10 9 9 9 7 7 6 6 5 5 5 3 3 2 2 2 2 1 1 1 1 1 0 0 -0 -1 -1 -1 -2
15 14 14 14 13 13 13 13 11 11 10 10 10 9 9 9 9 8 7 7 6 5 5 4 4 2 2 2 2 1 1 1 1 0 0 -0 -1 -1 -1 -1 -1 -2 -2
16 16 15 15 14 14 13 12 11 11 12 10 10 10 9 9 8 8 7 6 5 4 3 2 2 2 2 2 1 1 1 1 0 -0 -0 -1 -1 -1 -2 -2 -2 -3 -3
16 15 14 14 14 14 14 12 13 11 12 10 10 9 8 8 7 7 6 5 4 3 2 2 2 2 2 1 1 1 0 -0 -0 -1 -1 -2 -2 -2 -3 -3 -4 -4 -4
16 15 15 14 14 14 14 13 12 10 10 9 9 8 8 7 6 5 4 4 4 2 2 2 2 2 1 1 1 0 -0 -1 -1 -2 -2 -3 -3 -3 -4 -5 -6 -6 -5
16 15 14 14 12 11 10 10 10 9 9 9 9 8 6 5 5 4 4 3 2 2 1 1 1 1 1 1 0 -1 -1 -2 -3 -3 -4 -4 -4 -4 -5 -6 -6 -6 -7
16 15 13 10 10 10 9 9 9 8 8 8 7 5 4 4 4 3 3 1 1 1 1 1 1 0 -0 -1 -1 -1 -1 -2 -3 -3 -4 -4 -5 -5 -6 -6 -7 -7 -7
12 11 10 10 10 9 9 9 8 7 7 5 4 4 4 2 3 1 1 1 1 1 0 0 -0 -1 -1 -1 -2 -2 -3 -3 -4 -4 -4 -5 -5 -5 -6 -7 -7 -8 -8
11 10 10 9 9 9 8 8 7 6 5 4 3 3 2 2 1 1 1 0 0 -0 -0 -1 -1 -1 -2 -3 -4 -4 -4 -5 -5 -4 -5 -5 -6 -6 -6 -6 -7 -8 -7
9 9 9 9 8 7 7 6 5 4 4 3 2 2 0 0 0 -1 -1 -0 -1 -1 -2 -2 -3 -3 -4 -4 -5 -5 -6 -7 -7 -7 -7 -7 -7 -7 -7 -8 -8 -8 -8
8 7 7 7 6 5 5 4 3 2 2 2 1 1 -1 -1 -1 -1 -1 -1 -2 -2 -3 -4 -4 -5 -5 -6 -6 -7 -8 -8 -8 -8 -8 -8 -9 -9 -8 -8 -8 -8 -8
6 5 4 4 3 2 2 2 2 1 1 0 -1 -2 -2 -2 -1 -2 -3 -3 -3 -4 -4 -5 -6 -6 -7 -7 -8 -9 -9 -9 -9 -9 -9 -9 -9 -9 -9 -8 -8 -7 -7
3 3 2 2 1 1 1 1 0 -1 -1 -2 -2 -3 -3 -3 -3 -4 -5 -5 -4 -5 -6 -6 -7 -8 -8 -9 -10 -11 -11 -11 -11 -11 -11 -11 -10 -9 -9 -9 -9 -8 -8
2 2 1 1 0 -0 -1 -2 -2 -3 -3 -5 -4 -4 -4 -4 -5 -5 -6 -6 -7 -7 -7 -8 -9 -9 -10 -11 -12 -12 -13 -13 -13 -13 -13 -12 -11 -11 -10 -9 -8 -9 -8
2 1 -0 -1 -1 -2 -4 -5 -5 -6 -5 -5 -4 -5 -5 -6 -8 -7 -8 -9 -9 -9 -10 -10 -11 -11 -12 -13 -13 -14 -14 -14 -14 -14 -14 -14 -14 -13 -12 -11 -10 -10 -9
0 -1 -2 -3 -4 -4 -4 -4 -4 -6 -7 -6 -6 -7 -8 -9 -9 -9 -10 -10 -11 -12 -12 -12 -12 -13 -13 -14 -15 -15 -15 -16 -16 -16 -16 -16 -15 -14 -13 -13 -12 -12 -10
-3 -3 -3 -4 -4 -5 -6 -6 -7 -7 -7 -8 -9 -9 -9 -10 -11 -11 -11 -12 -12 -12 -13 -14 -14 -14 -15 -15 -16 -16 -17 -17 -17 -17 -17 -17 -17 -16 -15 -14 -13 -13 -12
-4 -4 -5 -6 -6 -6 -7 -7 -8 -9 -9 -10 -10 -11 -11 -11 -12 -12 -13 -13 -14 -14 -15 -15 -16 -16 -16 -17 -17 -17 -18 -18 -18 -18 -18 -18 -18 -18 -17 -16 -15 -14 -13
-6 -6 -6 -7 -7 -8 -9 -9 -10 -10 -11 -12 -12 -12 -12 -13 -13 -14 -14 -15 -15 -16 -16 -17 -17 -17 -18 -18 -18 -19 -19 -19 -19 -19 -19 -19 -19 -18 -18 -17 -16 -15 -14
-7 -8 -8 -9 -9 -10 -11 -11 -12 -12 -13 -13 -13 -14 -14 -14 -15 -16 -16 -17 -17 -18 -18 -18 -19 -19 -19 -19 -20 -20 -20 -20 -20 -20 -20 -19 -19 -19 -18 -18 -17 -16 -15
-9 -10 -10 -11 -11 -12 -12 -13 -14 -14 -15 -15 -15 -16 -16 -16 -17 -17 -18 -18 -19 -19 -20 -20 -20 -20 -20 -20 -21 -21 -21 -20 -20 -20 -20 -20 -19 -19 -19 -18 -17 -16 -15
-11 -11 -12 -13 -13 -14 -15 -15 -16 -16 -16 -17 -17 -18 -18 -18 -19 -19 -20 -20 -20 -21 -21 -21 -21 -21 -21 -21 -21 -21 -21 -21 -21 -21 -21 -21 -20 -20 -19 -19 -18 -17 -16
-12 -13 -14 -15 -15 -16 -16 -17 -18 -18 -18 -19 -19 -19 -20 -20 -20 -21 -21 -21 -22 -22 -22 -22 -22 -22 -22 -21 -21 -21 -21 -21 -21 -21 -21 -21 -20 -20 -19 -19 -18 -18 -17
-14 -15 -16 -17 -17 -18 -18 -19 -19 -19 -20 -20 -20 -21 -21 -21 -22 -22 -22 -22 -23 -23 -23 -23 -22 -22 -21 -21 -20 -21 -21 -21 -20 -20 -20 -21 -20 -20 -19 -19 -18 -18 -17
-16 -17 -18 -18 -19 -19 -20 -20 -21 -21 -21 -21 -22 -22 -22 -22 -22 -23 -23 -23 -23 -23 -22 -22 -21 -21 -21 -21 -21 -21 -20 -20 -20 -20 -20 -20 -20 -19 -19 -19 -18 -18 -17

GFSGL_850_temp_087.txt.gz
Temp
12 11 11 11 11 11 11 12 12 12 12 12 11 11 11 10 9 10 9 9 9 8 7 8 6 6 6 5 4 3 3 2 2 2 2 1 1 1 1 0 0 -0 -0
13 12 12 12 12 12 12 12 11 11 11 12 11 10 10 10 10 10 9 9 9 8 7 7 6 6 5 4 3 3 2 2 2 1 1 1 1 0 1 0 0 -1 -1
13 13 13 12 12 13 13 12 12 12 10 10 9 10 10 10 10 9 9 9 9 9 7 6 5 4 4 3 2 2 2 2 1 1 1 1 0 0 0 -0 -1 -1 -2
14 13 13 13 13 13 13 12 12 11 11 11 10 9 9 9 9 9 9 9 8 7 6 6 5 4 3 2 2 2 2 1 1 1 0 0 -0 -0 -1 -1 -2 -2 -2
15 14 14 14 13 13 12 12 12 12 11 11 11 11 9 9 9 9 9 8 7 6 5 4 3 3 2 1 2 2 1 1 1 0 -0 -1 -1 -1 -2 -2 -3 -3 -3
16 15 14 13 12 12 12 11 11 10 11 10 11 10 9 9 9 8 8 8 5 4 4 3 2 1 1 2 1 1 1 0 0 -0 -1 -2 -2 -2 -3 -3 -4 -4 -5
15 14 14 13 13 12 11 10 10 10 10 9 9 9 9 9 8 8 7 5 4 4 3 2 1 0 1 0 1 0 -0 -1 -1 -2 -2 -2 -3 -3 -4 -4 -5 -6 -6
15 15 14 13 13 10 10 10 10 9 9 9 9 8 8 7 7 4 4 4 4 2 1 -0 -1 -1 -1 -1 -1 -1 -1 -1 -2 -3 -3 -3 -4 -5 -6 -6 -7 -7 -7
14 13 11 10 10 10 9 10 9 9 9 8 8 7 5 4 4 4 3 3 1 0 -1 -2 -1 -2 -2 -1 -1 -2 -2 -2 -3 -3 -3 -4 -4 -6 -6 -7 -7 -8 -8
11 11 10 10 9 8 9 8 8 8 7 5 4 4 4 4 3 2 2 -0 -0 -1 -2 -2 -2 -2 -2 -2 -3 -3 -3 -4 -4 -4 -4 -5 -5 -6 -7 -8 -8 -8 -8
10 9 9 8 8 7 7 7 7 6 5 4 4 3 2 1 1 0 -0 -1 -2 -2 -3 -3 -3 -3 -4 -4 -4 -4 -5 -5 -6 -7 -7 -7 -7 -7 -8 -9 -9 -8 -8
8 7 7 6 6 6 6 6 5 4 4 3 2 1 0 -0 -1 -2 -2 -2 -4 -5 -4 -4 -4 -5 -5 -4 -5 -6 -7 -8 -8 -8 -8 -8 -8 -8 -8 -9 -9 -9 -9
6 6 6 6 4 4 4 4 3 2 1 1 0 -0 -1 -3 -3 -3 -4 -5 -6 -5 -5 -5 -5 -5 -5 -6 -7 -8 -9 -9 -9 -9 -10 -10 -10 -10 -10 -9 -9 -9 -9
5 4 4 3 3 2 2 1 1 0 -0 -2 -3 -3 -3 -4 -5 -5 -5 -6 -6 -6 -7 -8 -8 -7 -8 -9 -9 -10 -10 -11 -11 -11 -12 -11 -11 -11 -11 -11 -10 -10 -9
4 3 3 2 2 1 1 -1 -2 -3 -3 -4 -4 -4 -4 -5 -6 -7 -7 -7 -7 -9 -9 -9 -9 -10 -10 -10 -11 -12 -12 -12 -13 -13 -13 -13 -13 -13 -12 -12 -12 -11 -11
3 2 1 0 -1 -2 -3 -3 -3 -3 -3 -3 -4 -6 -7 -7 -7 -8 -9 -10 -10 -10 -10 -11 -11 -12 -12 -13 -13 -14 -14 -14 -15 -15 -15 -15 -15 -14 -14 -13 -13 -13 -12
1 -1 -2 -3 -3 -3 -3 -4 -4 -5 -6 -7 -7 -7 -8 -9 -9 -10 -10 -10 -11 -11 -12 -12 -13 -13 -14 -14 -15 -15 -16 -16 -17 -17 -17 -17 -17 -16 -15 -15 -15 -14 -13
-2 -3 -3 -4 -4 -5 -5 -6 -7 -7 -8 -8 -9 -9 -10 -10 -11 -11 -11 -12 -12 -12 -13 -14 -14 -15 -15 -16 -16 -17 -17 -18 -18 -18 -18 -18 -18 -18 -17 -17 -16 -16 -15
-4 -4 -5 -6 -6 -7 -7 -8 -8 -9 -9 -10 -10 -11 -11 -11 -12 -12 -13 -13 -14 -15 -15 -16 -16 -16 -17 -17 -18 -18 -19 -19 -19 -19 -20 -19 -19 -19 -18 -18 -17 -17 -16
-6 -6 -7 -7 -8 -8 -9 -9 -10 -11 -11 -12 -12 -13 -13 -13 -13 -14 -15 -16 -16 -17 -17 -17 -18 -18 -18 -19 -19 -19 -20 -20 -20 -20 -20 -20 -20 -20 -19 -19 -18 -17 -16
-7 -8 -9 -9 -9 -10 -11 -11 -12 -13 -14 -14 -15 -15 -16 -16 -16 -17 -17 -18 -18 -19 -19 -19 -20 -20 -20 -20 -21 -21 -21 -21 -21 -21 -21 -21 -20 -20 -20 -19 -19 -18 -18
-8 -9 -10 -10 -11 -12 -13 -14 -14 -15 -15 -16 -17 -17 -18 -18 -18 -19 -19 -20 -20 -20 -21 -21 -21 -21 -21 -22 -22 -22 -22 -22 -21 -21 -21 -21 -20 -20 -20 -20 -19 -19 -18
-10 -11 -12 -12 -13 -14 -15 -15 -16 -17 -18 -18 -18 -19 -19 -20 -20 -20 -21 -21 -22 -22 -22 -22 -23 -23 -23 -23 -22 -22 -22 -22 -21 -22 -21 -21 -20 -20 -20 -20 -19 -19 -18
-12 -13 -13 -14 -15 -16 -17 -18 -18 -19 -19 -20 -20 -21 -21 -21 -21 -22 -22 -22 -22 -23 -23 -23 -24 -23 -23 -22 -22 -22 -22 -22 -22 -21 -21 -21 -21 -20 -20 -20 -20 -19 -19
-14 -15 -16 -16 -17 -18 -19 -19 -20 -21 -21 -21 -22 -22 -22 -22 -23 -23 -23 -23 -23 -23 -23 -23 -23 -22 -22 -22 -22 -22 -22 -22 -22 -21 -21 -21 -20 -20 -20 -20 -20 -19 -19
-15 -16 -17 -18 -19 -19 -20 -21 -21 -22 -22 -22 -23 -23 -23 -23 -24 -24 -24 -24 -23 -23 -23 -23 -23 -22 -22 -22 -22 -22 -21 -21 -21 -21 -21 -20 -20 -20 -20 -20 -19 -19 -19

GFSGL_850_temp_090.txt.gz
Temp
13 13 13 13 12 12 12 12 12 12 12 12 12 12 11 11 11 11 10 10 9 9 9 9 9 7 7 7 5 5 5 4 4 3 3 2 2 2 2 1 1 1 0
14 14 14 13 12 12 12 12 11 12 11 11 11 11 10 10 10 10 9 9 9 9 9 9 8 7 7 7 6 5 4 3 3 2 2 2 2 1 1 1 1 0 0
14 14 14 14 12 13 12 12 12 12 12 11 11 10 11 10 9 10 9 9 9 9 8 8 8 8 7 6 5 4 4 3 2 1 2 1 1 1 1 0 -0 -0 -1
15 15 15 15 15 14 13 12 12 12 11 12 11 10 10 10 9 9 9 9 9 9 8 8 8 7 7 6 4 3 2 2 1 1 1 1 1 0 -0 -0 -1 -1 -1
15 14 15 14 13 13 12 12 12 11 11 11 10 10 10 10 10 10 10 10 8 8 8 8 6 5 5 4 3 2 2 0 0 0 1 0 -0 -1 -1 -1 -2 -2 -1
15 15 14 12 12 12 12 11 10 10 10 10 10 9 9 9 9 9 10 9 9 8 8 7 5 4 3 2 2 1 -0 -1 -1 -0 -0 -1 -1 -2 -2 -2 -3 -3 -4
15 14 13 12 12 11 11 10 10 10 10 10 9 9 9 9 8 8 8 8 7 6 5 4 3 4 3 2 0 -1 -1 -2 -2 -3 -2 -2 -2 -2 -3 -4 -4 -4 -5
13 12 11 11 10 10 10 9 9 9 9 10 9 9 9 8 8 6 5 4 4 4 3 3 2 2 1 -1 -3 -2 -2 -3 -3 -3 -2 -3 -4 -4 -5 -6 -6 -5 -5
11 10 10 9 9 9 9 9 9 9 9 9 9 8 7 6 5 4 4 3 3 3 3 2 1 -0 -2 -2 -2 -3 -3 -3 -3 -3 -4 -4 -6 -6 -6 -6 -6 -8 -7
9 9 8 8 8 8 8 8 7 8 8 7 6 5 4 4 3 3 2 3 3 2 -1 -1 -2 -3 -3 -4 -5 -4 -4 -4 -4 -4 -5 -6 -6 -6 -6 -6 -7 -9 -9
9 9 8 8 8 8 7 7 7 7 6 5 5 4 3 2 2 1 1 -1 -1 -2 -3 -3 -4 -5 -6 -6 -5 -4 -5 -5 -6 -6 -6 -7 -6 -7 -7 -7 -8 -9 -9
8 8 7 7 7 6 6 6 5 5 4 4 3 2 1 0 -1 -2 -2 -3 -3 -4 -5 -5 -6 -7 -6 -6 -7 -7 -8 -8 -8 -8 -8 -8 -8 -8 -8 -8 -9 -9 -9
7 6 6 6 6 6 5 4 4 3 2 2 1 -0 -1 -3 -3 -4 -4 -4 -4 -4 -5 -6 -8 -7 -7 -8 -10 -10 -10 -10 -10 -10 -11 -11 -11 -10 -10 -10 -10 -10 -10
6 6 5 5 4 3 2 1 1 -0 -1 -2 -3 -3 -4 -4 -4 -4 -4 -5 -6 -7 -7 -7 -7 -8 -9 -11 -11 -11 -11 -12 -12 -12 -12 -13 -13 -12 -12 -12 -12 -12 -11
4 3 2 1 0 0 -0 -2 -2 -3 -3 -3 -3 -4 -5 -5 -6 -7 -7 -7 -8 -8 -9 -10 -10 -11 -11 -12 -12 -12 -13 -13 -13 -13 -14 -14 -14 -14 -14 -14 -13 -13 -13
3 1 -0 -1 -2 -2 -3 -3 -3 -4 -4 -5 -6 -6 -7 -7 -8 -9 -9 -10 -10 -11 -11 -11 -12 -12 -13 -13 -13 -14 -14 -15 -15 -15 -16 -16 -16 -16 -16 -15 -15 -15 -15
0 -2 -2 -3 -3 -3 -4 -5 -5 -7 -7 -7 -8 -8 -9 -10 -10 -10 -11 -11 -11 -12 -12 -13 -13 -14 -14 -15 -15 -15 -16 -16 -17 -17 -17 -18 -18 -18 -18 -17 -17 -17 -16
-2 -3 -3 -4 -5 -5 -6 -6 -7 -8 -8 -9 -10 -10 -11 -11 -11 -12 -12 -13 -13 -14 -14 -15 -15 -15 -16 -16 -17 -17 -17 -18 -18 -19 -19 -19 -19 -19 -19 -19 -18 -18 -17
-4 -5 -6 -6 -7 -7 -8 -8 -9 -9 -10 -11 -12 -12 -12 -13 -13 -14 -14 -15 -16 -16 -17 -17 -17 -18 -18 -18 -19 -19 -19 -20 -20 -20 -20 -20 -21 -21 -20 -20 -19 -19 -18
-6 -7 -7 -7 -8 -8 -9 -9 -10 -11 -12 -13 -13 -14 -14 -14 -15 -16 -17 -17 -18 -18 -19 -19 -19 -20 -20 -20 -20 -21 -21 -21 -21 -21 -21 -21 -21 -21 -21 -21 -20 -20 -19
-7 -7 -8 -8 -9 -10 -11 -12 -13 -13 -14 -15 -16 -16 -17 -17 -18 -18 -19 -19 -20 -20 -21 -21 -21 -22 -22 -22 -22 -22 -22 -22 -22 -22 -22 -22 -22 -21 -21 -21 -21 -20 -20
-8 -9 -10 -10 -11 -12 -13 -14 -15 -16 -16 -17 -18 -18 -19 -19 -20 -20 -21 -21 -21 -22 -22 -22 -22 -23 -23 -23 -23 -23 -23 -23 -22 -22 -22 -22 -22 -21 -21 -21 -21 -20 -20
-10 -11 -11 -12 -13 -14 -15 -16 -16 -17 -18 -19 -19 -20 -20 -21 -21 -22 -22 -22 -22 -22 -23 -23 -23 -23 -23 -23 -23 -23 -23 -22 -22 -22 -22 -22 -22 -22 -21 -21 -21 -20 -20
-12 -13 -14 -14 -15 -16 -17 -17 -18 -18 -19 -20 -20 -21 -21 -21 -22 -22 -22 -23 -23 -23 -23 -23 -23 -23 -23 -23 -22 -22 -23 -23 -23 -22 -23 -23 -22 -21 -21 -21 -21 -20 -20
-14 -14 -15 -16 -17 -17 -18 -18 -19 -20 -20 -20 -20 -21 -21 -21 -22 -22 -22 -22 -22 -22 -22 -22 -23 -23 -23 -22 -22 -22 -22 -22 -22 -22 -22 -22 -22 -21 -21 -21 -20 -20 -20
-15 -16 -17 -17 -17 -18 -19 -20 -20 -20 -20 -20 -20 -21 -21 -21 -22 -22 -22 -22 -22 -22 -22 -22 -22 -22 -22 -22 -22 -22 -22 -22 -22 -22 -22 -22 -21 -21 -21 -21 -20 -20 -20

GFSGL_850_temp_093.txt.gz
Temp
13 12 11 11 11 10 11 11 11 10 10 10 10 10 10 11 11 11 10 10 10 10 9 9 9 8 8 9 8 8 7 6 5 5 5 4 4 3 3 2 2 1 1
14 14 13 13 13 13 12 13 12 12 11 11 11 11 11 11 11 11 10 10 9 9 9 8 8 8 8 8 8 7 6 7 6 5 5 4 3 2 1 2 2 1 1
14 14 14 14 14 14 14 13 13 13 13 13 12 12 12 11 10 10 9 9 9 8 9 8 9 9 8 7 8 7 7 6 6 4 3 2 2 1 0 1 1 1 1
15 15 14 14 14 14 13 13 13 13 12 12 11 11 11 11 10 10 11 10 9 8 8 9 9 9 8 7 7 7 6 5 4 3 2 1 1 -0 -0 0 0 0 -0
15 14 14 14 13 13 12 11 11 11 11 11 10 10 11 11 11 10 10 9 9 8 8 8 8 8 7 7 7 6 5 4 2 1 1 0 -0 -1 -2 -3 -1 -1 -1
15 15 13 13 13 12 12 12 11 11 10 10 10 10 10 10 10 9 9 9 8 8 8 7 7 7 6 4 4 3 3 2 1 1 -0 -1 -2 -2 -4 -4 -2 -3 -5
15 14 13 12 12 12 11 11 10 10 10 10 10 10 9 9 9 9 8 8 8 7 6 6 5 4 3 3 2 2 2 1 0 -1 -2 -3 -3 -4 -4 -4 -4 -4 -5
14 13 12 12 11 11 10 10 9 9 9 9 10 9 8 8 8 8 8 6 5 4 4 3 3 3 2 2 1 0 -1 -2 -3 -3 -4 -4 -4 -4 -3 -4 -4 -5 -5
13 12 11 10 9 9 9 9 9 9 9 9 8 8 7 7 7 7 6 4 4 3 2 1 1 0 1 -0 -1 -3 -4 -4 -4 -6 -6 -6 -5 -5 -5 -5 -5 -7 -8
9 9 9 9 8 8 8 8 8 8 7 7 7 6 6 5 4 4 3 2 2 1 0 -1 -3 -3 -4 -3 -4 -4 -5 -7 -8 -7 -6 -6 -7 -7 -7 -7 -8 -9 -9
8 8 8 8 8 7 7 7 6 6 6 6 5 5 3 2 2 1 1 0 -1 -2 -3 -3 -4 -4 -3 -3 -4 -5 -7 -8 -8 -7 -8 -8 -8 -8 -9 -9 -10 -11 -10
7 7 7 6 6 6 5 5 5 4 4 3 2 2 -0 -1 -2 -3 -3 -3 -3 -4 -4 -4 -4 -4 -5 -6 -7 -8 -8 -8 -9 -10 -10 -10 -10 -10 -11 -11 -11 -11 -11
6 6 5 5 5 4 4 3 3 2 1 -0 -1 -2 -3 -4 -3 -3 -3 -4 -4 -5 -6 -6 -7 -7 -7 -8 -8 -9 -10 -11 -11 -11 -11 -12 -12 -12 -12 -12 -12 -12 -12
5 5 3 3 2 2 1 1 -0 -1 -2 -2 -3 -3 -4 -4 -5 -5 -6 -6 -6 -7 -7 -8 -8 -9 -9 -10 -11 -11 -12 -12 -12 -13 -13 -13 -14 -14 -14 -15 -14 -14 -14
3 1 1 1 0 -0 -1 -2 -2 -3 -4 -4 -5 -5 -6 -6 -7 -7 -8 -8 -9 -9 -10 -10 -11 -11 -12 -12 -12 -13 -13 -13 -14 -14 -15 -15 -16 -17 -17 -17 -17 -17 -17
2 1 -1 -1 -2 -2 -3 -4 -5 -5 -5 -6 -6 -7 -8 -9 -10 -10 -10 -11 -11 -11 -12 -13 -13 -14 -14 -14 -14 -15 -15 -16 -16 -17 -17 -17 -18 -18 -18 -18 -18 -18 -18
0 -2 -2 -2 -3 -4 -5 -6 -6 -8 -8 -8 -9 -10 -10 -11 -11 -11 -11 -12 -12 -13 -14 -15 -15 -16 -16 -16 -16 -17 -17 -18 -18 -19 -19 -19 -19 -19 -20 -19 -19 -19 -19
-2 -3 -3 -4 -5 -5 -6 -7 -8 -9 -9 -10 -12 -12 -12 -12 -12 -13 -13 -14 -14 -16 -17 -17 -17 -18 -18 -18 -18 -19 -20 -20 -20 -20 -21 -21 -21 -21 -20 -20 -20 -20 -20
-4 -4 -5 -6 -6 -7 -8 -8 -9 -10 -11 -12 -13 -13 -13 -14 -15 -15 -15 -16 -17 -19 -19 -19 -20 -20 -21 -21 -21 -21 -22 -22 -22 -22 -22 -22 -22 -22 -22 -21 -21 -21 -21
-6 -7 -7 -7 -8 -9 -9 -10 -11 -12 -12 -13 -14 -15 -15 -15 -15 -17 -17 -18 -19 -20 -21 -21 -22 -22 -22 -22 -23 -23 -23 -23 -23 -23 -23 -23 -23 -22 -22 -22 -22 -22 -21
-7 -8 -8 -8 -9 -10 -11 -12 -13 -14 -15 -16 -16 -17 -17 -17 -18 -19 -19 -20 -20 -20 -21 -21 -21 -22 -23 -23 -24 -24 -24 -24 -23 -24 -24 -24 -24 -23 -23 -23 -22 -22 -22
-8 -9 -9 -10 -11 -12 -13 -14 -14 -15 -16 -16 -17 -18 -18 -19 -19 -19 -20 -20 -21 -21 -22 -22 -22 -22 -22 -22 -23 -23 -23 -23 -23 -24 -24 -24 -24 -24 -23 -23 -23 -23 -22
-10 -10 -11 -12 -13 -14 -14 -15 -16 -17 -17 -18 -18 -19 -19 -19 -20 -20 -20 -21 -21 -21 -21 -21 -22 -22 -22 -22 -22 -23 -23 -22 -23 -23 -24 -25 -24 -24 -24 -23 -23 -23 -22
-11 -12 -12 -13 -14 -15 -16 -17 -17 -18 -18 -18 -19 -19 -19 -20 -20 -20 -20 -21 -21 -21 -21 -21 -22 -22 -22 -22 -22 -22 -22 -22 -22 -22 -23 -22 -22 -22 -23 -23 -23 -23 -22
-12 -13 -14 -15 -16 -17 -17 -18 -18 -18 -18 -19 -19 -20 -20 -20 -20 -20 -21 -21 -21 -21 -21 -21 -21 -21 -21 -21 -22 -22 -22 -22 -22 -22 -22 -22 -22 -22 -22 -22 -22 -21 -21
-14 -15 -15 -16 -17 -17 -18 -18 -18 -19 -19 -19 -19 -20 -20 -20 -21 -21 -21 -21 -21 -21 -21 -21 -21 -21 -21 -21 -21 -21 -21 -21 -21 -22 -22 -22 -22 -21 -22 -21 -21 -21 -21

GFSGL_850_temp_096.txt.gz
Temp
9 8 8 8 8 8 8 9 9 9 9 8 8 8 8 9 9 8 8 9 8 9 9 10 10 10 9 9 8 8 8 7 5 6 8 6 6 7 6 5 4 3 2
10 10 9 9 9 8 9 9 9 9 9 9 8 8 9 9 9 9 9 11 11 11 11 10 10 9 8 7 8 8 8 7 7 6 7 5 5 6 6 5 3 2 1
9 9 9 10 10 10 11 10 8 9 8 8 8 8 8 9 9 10 10 11 11 10 10 9 9 9 7 7 8 8 7 6 7 7 6 5 4 4 4 2 1 1 -0
10 10 10 11 11 10 11 11 10 10 10 10 10 10 9 9 9 8 9 10 10 9 10 9 9 9 8 8 7 7 7 7 7 6 6 4 4 3 2 1 -0 -0 -1
11 10 10 11 11 11 11 12 12 10 10 10 9 9 9 9 9 9 9 10 9 9 9 8 8 7 7 7 6 6 5 5 4 4 3 2 2 2 0 -0 -1 -2 -2
11 11 10 10 11 10 10 9 10 10 9 10 9 9 9 10 9 9 9 9 9 8 7 7 7 6 6 6 5 5 4 4 3 3 1 1 0 -0 -1 -1 -2 -3 -4
12 11 11 10 10 9 9 9 8 8 8 9 9 9 9 9 9 9 9 8 8 7 7 6 5 5 4 4 4 3 2 2 2 1 0 -0 -1 -2 -3 -3 -4 -6 -6
11 10 10 10 9 9 9 9 9 8 9 9 9 9 9 8 8 8 8 7 7 6 6 5 4 3 2 1 1 1 -0 -0 -1 -1 -2 -3 -4 -5 -5 -6 -6 -7 -7
10 10 9 9 9 9 9 8 8 8 8 8 8 7 7 7 7 7 7 5 4 4 3 2 0 -0 -1 -2 -2 -3 -3 -3 -3 -3 -3 -3 -3 -4 -6 -8 -8 -8 -7
9 9 9 9 9 8 8 8 8 8 7 7 6 5 5 4 4 4 3 2 2 1 -1 -2 -3 -3 -3 -3 -3 -3 -3 -3 -3 -4 -4 -5 -6 -7 -7 -8 -9 -9 -8
9 9 8 8 8 7 7 6 6 6 5 5 4 3 3 1 1 0 -0 -1 -1 -2 -3 -3 -3 -3 -4 -4 -4 -4 -5 -6 -6 -7 -8 -8 -9 -9 -9 -9 -10 -10 -10
8 8 7 7 6 6 6 5 4 4 4 2 1 0 -1 -2 -2 -2 -2 -2 -3 -3 -4 -4 -5 -5 -6 -6 -7 -7 -8 -9 -9 -10 -10 -10 -11 -11 -11 -12 -11 -11 -12
7 6 6 5 5 4 4 3 3 2 1 -0 -1 -2 -3 -3 -3 -4 -4 -4 -4 -5 -6 -6 -7 -7 -8 -9 -9 -10 -10 -11 -11 -11 -12 -12 -12 -13 -13 -13 -13 -13 -13
5 4 3 4 3 2 1 1 0 -1 -2 -2 -3 -4 -5 -5 -6 -6 -6 -7 -7 -7 -8 -9 -9 -10 -10 -11 -11 -11 -12 -13 -13 -13 -13 -14 -14 -14 -15 -15 -15 -14 -14
3 2 1 0 1 -0 -1 -2 -2 -3 -4 -4 -5 -6 -8 -8 -9 -8 -8 -8 -9 -10 -11 -11 -11 -11 -11 -12 -12 -12 -13 -13 -14 -14 -15 -15 -15 -15 -15 -15 -15 -15 -15
2 -0 -1 -2 -2 -2 -3 -4 -5 -5 -5 -5 -6 -7 -8 -9 -10 -10 -10 -10 -11 -11 -12 -13 -13 -13 -13 -14 -14 -14 -15 -15 -16 -16 -16 -16 -17 -17 -17 -17 -17 -16 -16
1 -2 -2 -4 -5 -6 -6 -7 -7 -8 -8 -8 -9 -9 -10 -10 -11 -11 -12 -13 -12 -13 -14 -15 -15 -15 -16 -16 -16 -16 -17 -17 -18 -18 -18 -18 -18 -18 -18 -18 -18 -17 -17
-1 -2 -2 -4 -6 -7 -8 -9 -10 -11 -12 -11 -11 -11 -11 -11 -12 -12 -12 -14 -15 -16 -16 -16 -17 -17 -18 -18 -18 -19 -19 -19 -20 -20 -20 -20 -20 -20 -19 -19 -19 -19 -19
-2 -3 -4 -5 -5 -7 -8 -10 -11 -12 -13 -14 -15 -15 -13 -13 -13 -13 -14 -17 -18 -18 -18 -18 -19 -19 -20 -20 -20 -20 -21 -21 -21 -21 -21 -21 -21 -21 -20 -20 -20 -20 -20
-4 -5 -5 -6 -7 -8 -9 -10 -12 -13 -14 -16 -16 -16 -17 -17 -18 -19 -19 -20 -20 -20 -20 -20 -20 -21 -21 -21 -21 -21 -21 -22 -22 -22 -22 -22 -22 -21 -21 -21 -21 -20 -20
-6 -7 -7 -8 -8 -9 -11 -12 -14 -16 -16 -17 -17 -16 -16 -19 -19 -20 -20 -21 -21 -21 -21 -21 -22 -22 -22 -22 -22 -22 -23 -23 -23 -23 -23 -22 -22 -22 -22 -21 -21 -21 -20
-7 -8 -8 -9 -10 -11 -13 -15 -16 -17 -18 -18 -19 -19 -17 -20 -20 -20 -21 -20 -20 -22 -22 -22 -22 -23 -23 -23 -24 -24 -24 -24 -24 -24 -24 -24 -23 -23 -22 -22 -21 -21 -21
-8 -9 -10 -11 -12 -13 -15 -16 -16 -18 -19 -19 -20 -20 -19 -18 -19 -19 -19 -19 -20 -20 -20 -20 -20 -21 -22 -23 -22 -24 -24 -24 -24 -25 -25 -24 -24 -23 -23 -22 -22 -21 -21
-10 -11 -12 -12 -14 -14 -15 -16 -17 -17 -17 -18 -18 -18 -18 -18 -19 -20 -20 -19 -19 -19 -20 -20 -20 -20 -21 -21 -21 -21 -22 -22 -22 -22 -24 -24 -24 -24 -23 -23 -23 -22 -22
-12 -12 -13 -14 -15 -16 -16 -17 -17 -17 -17 -17 -18 -18 -19 -19 -20 -20 -19 -19 -20 -20 -20 -20 -20 -20 -21 -21 -21 -21 -21 -21 -21 -22 -22 -23 -24 -24 -24 -23 -23 -22 -22
-13 -14 -14 -15 -15 -16 -16 -17 -17 -17 -17 -18 -19 -19 -19 -19 -19 -19 -20 -20 -20 -20 -20 -20 -20 -20 -20 -20 -21 -21 -21 -21 -21 -21 -21 -21 -22 -24 -23 -23 -23 -22 -22

GFSGL_850_temp_099.txt.gz
Temp
10 9 9 9 9 9 10 10 10 9 9 10 10 10 9 9 10 10 9 10 10 9 9 9 9 10 9 9 10 8 7 7 7 7 7 7 6 7 7 7 7 7 6
11 10 9 9 9 9 9 9 10 10 10 10 10 10 10 9 9 9 9 9 9 9 10 9 9 9 9 9 9 8 8 8 7 6 7 7 7 6 6 6 7 6 5
12 11 11 10 10 10 10 9 9 9 9 9 9 9 9 9 9 9 9 9 9 9 9 9 9 10 9 9 9 8 8 7 7 6 6 7 6 5 5 5 4 3 2
12 11 11 11 10 10 10 10 10 9 9 9 9 9 9 10 10 10 10 10 10 9 9 9 9 9 9 8 8 7 7 7 6 6 5 5 5 5 5 4 3 1 1
12 12 11 11 11 10 10 10 9 9 9 9 9 9 9 9 9 9 10 10 9 9 9 9 9 8 8 7 7 6 6 5 5 5 5 4 4 4 3 3 1 0 -0
12 12 12 11 11 10 10 10 9 9 9 9 9 9 9 9 9 9 9 9 9 9 8 8 7 7 6 6 6 5 5 4 4 3 3 3 2 1 1 1 -0 -1 -2
13 13 12 12 11 11 10 10 9 9 9 9 9 9 9 9 9 9 9 9 8 8 7 7 6 5 4 4 4 3 2 2 2 1 0 -0 -1 -2 -2 -3 -3 -3 -4
13 13 13 12 12 11 11 10 9 9 9 9 9 9 9 9 9 8 8 7 7 6 5 4 3 3 2 1 -0 -1 -1 -1 -2 -2 -2 -3 -3 -3 -3 -3 -4 -4 -4
13 13 12 12 11 11 10 9 9 9 8 8 8 8 7 7 6 6 6 4 4 3 2 1 -0 -1 -2 -2 -2 -2 -2 -2 -2 -3 -3 -3 -4 -4 -4 -5 -6 -7 -7
12 10 10 10 9 9 9 9 8 8 8 6 6 5 4 4 3 3 3 2 1 0 -1 -2 -2 -2 -2 -2 -3 -3 -4 -4 -5 -5 -5 -6 -6 -7 -7 -8 -8 -8 -9
9 9 9 9 9 8 8 7 6 6 5 4 3 2 1 0 -0 -1 -1 -1 -1 -2 -2 -3 -3 -3 -3 -4 -4 -5 -6 -7 -8 -8 -8 -9 -9 -9 -9 -10 -10 -10 -10
8 8 7 7 7 6 5 4 4 3 3 2 1 -0 -1 -2 -3 -2 -2 -2 -3 -3 -3 -4 -5 -6 -6 -7 -8 -9 -9 -9 -10 -10 -10 -10 -10 -11 -11 -11 -11 -12 -12
8 6 5 4 4 4 4 2 2 1 1 -0 -1 -2 -3 -4 -4 -4 -3 -3 -4 -4 -6 -6 -7 -8 -9 -10 -10 -10 -11 -11 -12 -12 -11 -11 -12 -12 -13 -13 -13 -13 -13
5 4 2 3 2 2 2 0 -0 -1 -2 -3 -3 -3 -4 -5 -5 -5 -5 -5 -6 -7 -9 -10 -10 -11 -10 -10 -11 -11 -11 -12 -13 -13 -13 -14 -14 -14 -14 -14 -14 -14 -14
3 2 0 1 0 -1 -1 -1 -2 -3 -3 -3 -4 -5 -5 -6 -8 -7 -7 -7 -8 -9 -11 -11 -12 -12 -12 -12 -12 -13 -13 -14 -14 -15 -15 -15 -15 -15 -16 -16 -16 -16 -16
2 0 -0 -1 -1 -1 -2 -4 -5 -5 -5 -4 -5 -5 -7 -8 -9 -9 -9 -10 -10 -10 -12 -12 -13 -14 -14 -14 -14 -15 -15 -15 -16 -17 -17 -17 -17 -17 -17 -17 -17 -17 -17
0 -1 -2 -3 -3 -4 -4 -5 -5 -8 -7 -7 -7 -8 -8 -9 -10 -10 -11 -13 -12 -13 -14 -14 -15 -15 -16 -16 -16 -16 -17 -17 -18 -18 -18 -18 -18 -18 -19 -18 -18 -18 -17
-2 -3 -5 -6 -6 -7 -8 -9 -10 -11 -11 -10 -10 -10 -10 -10 -10 -11 -12 -14 -15 -15 -16 -16 -16 -17 -17 -17 -18 -18 -19 -19 -19 -19 -19 -19 -20 -19 -19 -19 -19 -19 -19
-3 -4 -4 -5 -6 -8 -9 -10 -11 -11 -12 -13 -14 -14 -14 -15 -14 -14 -13 -16 -17 -17 -17 -17 -18 -18 -19 -19 -19 -20 -20 -20 -20 -20 -20 -20 -20 -20 -20 -20 -20 -20 -19
-4 -4 -5 -6 -8 -10 -11 -12 -12 -13 -14 -15 -13 -14 -15 -16 -16 -17 -18 -18 -18 -18 -19 -19 -19 -19 -20 -20 -20 -20 -20 -21 -21 -21 -21 -21 -21 -21 -21 -21 -20 -20 -19
-5 -5 -6 -8 -11 -12 -12 -13 -14 -14 -15 -16 -14 -14 -14 -17 -17 -18 -18 -19 -20 -20 -20 -20 -21 -21 -21 -21 -21 -22 -22 -22 -22 -22 -22 -22 -22 -22 -21 -21 -21 -20 -20
-7 -7 -8 -10 -12 -12 -13 -14 -15 -16 -16 -16 -17 -16 -16 -18 -18 -19 -19 -20 -21 -21 -21 -22 -22 -22 -22 -22 -23 -23 -23 -23 -22 -23 -23 -23 -23 -22 -22 -21 -21 -21 -20
-7 -8 -9 -10 -11 -13 -14 -15 -16 -17 -17 -18 -18 -18 -19 -19 -20 -20 -21 -21 -21 -20 -20 -20 -20 -20 -22 -21 -20 -23 -23 -23 -23 -24 -24 -24 -23 -23 -22 -22 -22 -21 -21
-8 -9 -10 -13 -14 -15 -15 -16 -15 -16 -18 -18 -19 -19 -20 -20 -21 -21 -21 -19 -18 -19 -19 -19 -19 -19 -20 -20 -20 -20 -21 -22 -22 -22 -22 -23 -24 -24 -23 -23 -22 -22 -21
-10 -12 -13 -14 -16 -17 -17 -18 -18 -19 -19 -19 -20 -20 -21 -21 -21 -20 -19 -19 -19 -19 -19 -19 -19 -19 -19 -20 -20 -20 -21 -21 -21 -21 -21 -22 -23 -24 -24 -23 -22 -22 -21
-13 -14 -16 -17 -17 -18 -18 -18 -19 -19 -20 -20 -20 -20 -20 -21 -20 -18 -19 -19 -19 -19 -19 -19 -19 -19 -19 -20 -20 -20 -20 -20 -20 -20 -21 -21 -22 -24 -23 -23 -23 -22 -22

GFSGL_850_temp_102.txt.gz
Temp
9 10 10 9 9 9 9 10 10 10 10 10 10 10 10 10 10 10 11 11 10 10 10 10 10 10 10 10 10 10 9 9 9 9 8 8 8 7 7 7 7 7 7
10 11 10 10 10 10 9 10 10 10 10 10 10 10 10 10 10 11 11 10 10 9 10 9 9 10 9 9 9 9 9 9 9 8 8 8 7 7 7 6 6 6 6
11 10 10 9 10 10 10 9 10 10 10 9 9 10 10 10 10 10 10 10 10 9 9 9 9 9 9 9 9 9 9 8 8 8 7 6 6 6 6 5 5 5 5
12 11 10 10 10 10 10 10 10 10 10 10 9 10 10 10 9 9 9 9 10 10 9 9 9 9 9 9 8 8 7 7 6 6 5 5 5 5 5 5 4 4 5
13 12 11 11 10 10 10 10 10 10 10 10 10 10 9 9 9 9 9 9 9 9 9 9 9 9 9 8 8 7 6 6 5 4 4 4 3 3 3 2 2 2 2
13 12 12 11 11 10 10 10 10 10 10 10 9 9 9 9 9 9 9 9 10 9 9 9 8 7 6 7 6 6 6 4 4 3 2 1 1 0 -0 -1 -1 -1 -1
12 12 12 11 11 11 10 10 10 10 10 10 10 9 9 9 9 9 9 9 8 8 8 7 5 5 4 3 4 1 2 -0 0 -0 -0 -1 -1 -2 -2 -3 -3 -3 -3
13 12 12 12 11 11 11 10 10 10 9 9 9 9 9 8 8 8 8 8 8 6 4 3 3 2 2 1 1 -0 -1 -1 -1 -2 -3 -4 -4 -4 -4 -5 -5 -5 -5
13 13 13 12 12 12 11 10 10 10 9 9 8 8 7 6 6 6 6 5 3 3 1 1 0 -0 -0 -1 -2 -2 -2 -3 -3 -4 -5 -5 -6 -6 -6 -7 -7 -7 -8
14 14 13 13 12 11 11 10 9 8 8 7 7 5 4 4 2 2 2 2 2 0 -0 -1 -1 -2 -2 -3 -3 -4 -5 -5 -6 -7 -8 -9 -9 -9 -9 -9 -10 -10 -10
12 12 12 11 11 9 9 8 7 7 6 4 4 2 1 0 -0 -0 -1 -0 -0 -1 -1 -2 -4 -4 -5 -6 -7 -7 -8 -9 -10 -10 -10 -10 -10 -10 -10 -11 -11 -11 -12
9 9 9 9 10 9 7 5 4 3 2 1 0 -1 -2 -2 -2 -2 -2 -2 -3 -3 -4 -6 -7 -8 -9 -9 -9 -10 -11 -11 -11 -11 -11 -11 -12 -12 -13 -13 -13 -13 -13
8 8 7 6 5 4 5 2 1 1 -0 -1 -1 -2 -3 -4 -3 -4 -4 -4 -4 -5 -7 -9 -9 -10 -11 -11 -11 -11 -12 -12 -13 -13 -13 -14 -14 -14 -14 -14 -15 -14 -14
7 5 3 2 0 -0 1 -0 -1 -2 -2 -2 -2 -3 -4 -5 -5 -5 -5 -6 -7 -7 -10 -10 -10 -11 -11 -12 -12 -13 -14 -14 -15 -15 -15 -16 -16 -16 -16 -16 -16 -17 -17
3 1 1 1 1 -1 -1 -2 -2 -3 -3 -3 -4 -3 -4 -5 -7 -7 -7 -7 -8 -10 -11 -11 -11 -12 -13 -14 -14 -15 -15 -15 -16 -17 -17 -17 -17 -17 -18 -18 -18 -18 -18
1 0 -0 -2 -1 -2 -2 -3 -4 -4 -5 -5 -5 -5 -6 -7 -9 -8 -8 -9 -9 -12 -12 -13 -14 -15 -15 -16 -16 -16 -17 -17 -18 -18 -18 -19 -19 -19 -19 -19 -19 -19 -18
0 -1 -2 -2 -2 -3 -3 -4 -5 -8 -7 -7 -7 -7 -7 -8 -9 -11 -13 -11 -12 -12 -13 -15 -16 -16 -17 -17 -17 -18 -18 -19 -19 -19 -19 -19 -20 -20 -20 -20 -19 -19 -19
-3 -3 -3 -4 -5 -5 -6 -8 -8 -8 -9 -10 -10 -9 -10 -10 -10 -11 -13 -13 -12 -14 -16 -16 -17 -17 -18 -18 -18 -19 -19 -20 -20 -20 -20 -20 -20 -20 -20 -20 -20 -20 -20
-3 -5 -5 -6 -7 -8 -9 -11 -11 -12 -13 -14 -14 -14 -15 -15 -13 -12 -12 -13 -15 -16 -17 -17 -18 -18 -19 -19 -20 -20 -20 -20 -21 -21 -21 -21 -21 -21 -21 -21 -21 -20 -20
-5 -6 -6 -7 -8 -9 -10 -10 -11 -11 -11 -11 -12 -13 -15 -14 -14 -14 -14 -14 -15 -17 -17 -18 -19 -19 -20 -20 -20 -21 -20 -21 -21 -21 -21 -22 -22 -22 -22 -21 -21 -21 -21
-7 -8 -8 -8 -9 -10 -11 -11 -11 -11 -11 -12 -13 -14 -14 -15 -15 -15 -15 -15 -16 -16 -17 -18 -19 -20 -20 -20 -19 -19 -19 -21 -21 -22 -22 -22 -22 -22 -22 -22 -22 -21 -21
-9 -8 -8 -8 -9 -10 -11 -12 -13 -14 -15 -15 -15 -15 -16 -15 -17 -17 -16 -16 -16 -17 -18 -18 -19 -19 -19 -18 -18 -19 -19 -20 -21 -21 -21 -21 -21 -22 -23 -23 -22 -22 -22
-8 -8 -9 -10 -11 -12 -13 -14 -15 -15 -15 -16 -16 -17 -17 -17 -16 -17 -17 -17 -17 -17 -18 -18 -18 -18 -18 -18 -19 -19 -19 -20 -21 -21 -21 -21 -21 -21 -22 -23 -23 -23 -22
-8 -9 -10 -12 -12 -13 -13 -14 -15 -16 -16 -17 -17 -17 -16 -17 -18 -18 -18 -17 -17 -18 -18 -18 -18 -18 -18 -18 -19 -19 -19 -20 -21 -21 -21 -21 -20 -21 -22 -22 -23 -23 -22
-10 -11 -12 -12 -13 -14 -15 -15 -16 -16 -16 -16 -16 -17 -18 -18 -19 -18 -18 -17 -18 -18 -18 -18 -18 -18 -18 -19 -19 -19 -20 -20 -20 -20 -20 -20 -20 -21 -21 -22 -23 -23 -22
-13 -13 -14 -14 -15 -15 -15 -15 -15 -15 -16 -17 -17 -17 -18 -19 -18 -18 -18 -18 -18 -18 -18 -18 -18 -18 -18 -18 -19 -19 -19 -19 -19 -20 -20 -20 -20 -20 -21 -22 -22 -23 -23

GFSGL_850_temp_105.txt.gz
Temp
10 10 10 10 10 10 10 10 10 10 10 9 9 9 9 9 8 9 9 9 9 9 9 10 10 10 10 10 10 10 9 9 8 8 8 9 9 8 8 8 7 7 7
10 9 10 10 10 9 9 10 10 10 9 9 9 9 9 9 9 9 9 10 10 9 10 10 10 10 10 9 9 9 9 9 9 9 8 8 8 8 7 6 6 6 5
11 9 9 9 10 10 10 9 10 9 9 9 9 9 9 9 9 10 10 10 10 10 10 10 10 9 9 9 9 9 9 9 9 8 8 7 7 6 6 5 5 4 5
12 11 9 10 10 10 10 10 9 10 10 10 10 10 10 10 10 10 10 10 10 9 9 9 9 9 9 9 9 9 9 7 8 7 7 6 6 5 4 3 3 3 3
12 12 11 10 10 10 10 10 10 10 10 10 9 9 10 10 9 9 9 9 9 9 9 9 9 9 9 9 8 7 6 6 5 5 4 2 2 2 1 0 -0 0 1
12 12 12 11 10 10 10 10 9 9 9 9 9 9 9 9 9 9 9 9 9 9 9 8 8 8 7 4 3 2 5 3 3 2 1 1 -0 -2 -3 -2 -3 -3 -4
12 12 11 11 11 10 10 10 10 10 10 10 10 9 9 9 9 9 9 9 8 8 8 7 5 3 1 2 2 1 1 -0 1 0 -1 -2 -3 -4 -5 -4 -4 -5 -6
13 12 11 11 11 10 10 10 10 10 10 9 9 9 9 9 9 9 8 8 8 7 5 2 0 0 0 1 0 -1 -1 -1 -2 -2 -3 -5 -6 -7 -7 -8 -8 -8 -7
13 12 12 11 11 10 10 10 10 9 9 8 8 8 7 7 7 7 7 6 4 2 1 -0 0 -1 -1 -2 -3 -3 -4 -4 -5 -5 -7 -8 -9 -9 -9 -9 -8 -9 -10
13 12 12 11 11 11 11 10 9 8 8 7 7 5 4 4 2 2 2 2 2 0 -1 -1 -2 -3 -3 -3 -4 -5 -5 -6 -7 -7 -8 -9 -9 -10 -10 -10 -11 -11 -12
12 12 12 12 11 11 10 9 8 8 7 5 4 2 2 1 -0 -1 -1 -0 -0 -2 -3 -4 -5 -6 -7 -7 -6 -6 -7 -9 -9 -10 -10 -10 -11 -11 -11 -12 -13 -13 -14
10 10 10 10 10 9 9 7 7 6 5 3 1 -1 -2 -2 -2 -2 -2 -3 -4 -3 -4 -6 -8 -9 -9 -9 -9 -10 -11 -11 -11 -12 -12 -13 -13 -14 -14 -15 -15 -15 -15
8 7 7 6 6 5 5 3 1 1 1 -1 -1 -2 -3 -3 -4 -4 -4 -4 -5 -5 -6 -8 -9 -10 -10 -11 -12 -12 -12 -12 -13 -13 -14 -15 -16 -16 -16 -16 -16 -16 -16
6 5 3 3 2 1 0 -0 -1 -2 -2 -2 -3 -2 -5 -5 -6 -6 -6 -7 -7 -7 -8 -9 -10 -11 -11 -12 -12 -12 -13 -14 -15 -15 -16 -16 -16 -16 -17 -17 -18 -18 -17
4 1 1 -0 -0 -1 -1 -3 -2 -3 -3 -3 -4 -5 -6 -5 -6 -6 -6 -8 -8 -9 -10 -10 -10 -10 -10 -12 -13 -14 -14 -15 -15 -16 -17 -17 -17 -18 -18 -18 -19 -19 -19
0 -1 -2 -2 -2 -3 -3 -6 -6 -6 -5 -5 -6 -5 -6 -6 -7 -8 -9 -9 -10 -11 -10 -10 -11 -12 -12 -14 -15 -15 -15 -16 -16 -17 -17 -18 -18 -19 -19 -20 -20 -20 -20
-4 -4 -4 -4 -4 -4 -4 -4 -6 -8 -8 -7 -5 -5 -7 -9 -12 -9 -10 -9 -11 -11 -10 -12 -13 -15 -15 -15 -16 -16 -16 -16 -17 -17 -18 -20 -20 -20 -20 -20 -20 -21 -21
-3 -3 -4 -4 -4 -4 -5 -6 -6 -6 -6 -8 -10 -10 -11 -10 -10 -11 -12 -12 -11 -12 -13 -14 -15 -15 -15 -15 -15 -16 -16 -17 -18 -19 -19 -19 -20 -20 -20 -20 -21 -21 -21
-4 -5 -6 -7 -6 -5 -5 -6 -7 -8 -10 -12 -13 -13 -13 -11 -11 -11 -12 -11 -12 -13 -14 -15 -15 -15 -15 -15 -16 -17 -17 -17 -18 -18 -19 -19 -20 -20 -20 -21 -21 -21 -22
-4 -5 -5 -6 -7 -6 -7 -7 -9 -10 -11 -12 -13 -13 -14 -13 -12 -12 -13 -13 -13 -14 -15 -15 -15 -15 -15 -16 -16 -17 -17 -17 -18 -18 -19 -19 -20 -20 -20 -20 -21 -22 -22
-6 -7 -7 -7 -7 -8 -9 -9 -10 -11 -12 -13 -13 -13 -13 -12 -13 -13 -13 -14 -14 -15 -15 -15 -15 -15 -16 -16 -17 -17 -18 -18 -19 -19 -19 -19 -19 -19 -20 -20 -21 -22 -22
-6 -6 -7 -8 -9 -9 -10 -11 -11 -12 -12 -12 -13 -14 -14 -12 -13 -14 -14 -15 -15 -15 -15 -15 -15 -16 -16 -17 -18 -18 -18 -18 -18 -18 -18 -19 -19 -20 -20 -20 -21 -21 -22
-6 -7 -8 -9 -9 -11 -11 -12 -12 -12 -13 -14 -14 -13 -14 -14 -14 -15 -15 -15 -15 -15 -16 -16 -16 -17 -17 -18 -18 -18 -18 -18 -18 -19 -19 -19 -19 -20 -20 -20 -21 -21 -22
-8 -9 -9 -10 -11 -11 -12 -13 -14 -14 -14 -14 -14 -14 -15 -15 -15 -15 -15 -15 -15 -15 -16 -17 -17 -17 -18 -18 -18 -18 -18 -18 -19 -19 -19 -19 -19 -19 -19 -20 -21 -21 -22
-9 -9 -10 -11 -12 -12 -13 -13 -14 -14 -14 -14 -15 -15 -15 -15 -16 -15 -15 -16 -16 -17 -18 -18 -18 -18 -18 -18 -18 -18 -18 -18 -19 -19 -19 -19 -19 -19 -20 -20 -21 -21 -21
-10 -10 -11 -12 -13 -13 -13 -13 -14 -14 -14 -15 -16 -15 -15 -15 -15 -15 -16 -17 -18 -18 -18 -18 -18 -18 -18 -18 -18 -18 -18 -18 -18 -19 -19 -19 -19 -19 -20 -21 -22 -22 -21

GFSGL_850_temp_108.txt.gz
Temp
9 10 10 10 10 10 11 10 10 10 10 9 9 9 9 9 9 10 9 8 8 9 9 9 9 10 10 10 10 10 9 9 8 9 9 10 9 9 8 8 7 8 8
14 10 10 10 10 10 10 10 10 10 10 10 10 9 10 10 10 9 8 8 9 9 9 9 9 9 9 9 9 9 9 9 8 8 8 8 8 8 7 8 7 6 6
15 12 10 9 10 9 9 10 10 10 10 10 10 10 10 10 10 9 9 8 9 9 9 9 9 9 9 9 9 9 9 9 9 8 8 8 7 7 7 7 6 5 4
14 12 12 10 10 10 10 10 10 9 9 9 9 9 9 9 9 9 9 9 9 8 8 8 9 9 8 8 9 8 8 8 8 7 6 5 5 5 4 4 4 4 4
13 13 11 10 10 10 10 10 10 10 10 10 10 9 9 9 9 9 9 9 8 8 8 8 8 8 8 8 8 7 6 6 5 5 5 3 3 4 3 2 1 1 1
13 13 11 11 9 10 9 9 9 9 9 9 9 9 8 8 8 9 8 8 8 8 8 8 8 7 6 4 3 3 3 3 3 4 3 1 -1 -2 -3 -2 -2 -3 -3
14 13 12 11 10 10 9 9 9 8 8 8 8 8 9 9 9 9 8 8 8 8 8 8 5 3 2 2 2 2 2 1 1 0 -0 -2 -4 -5 -4 -4 -6 -7 -7
12 13 12 11 10 9 9 9 9 9 9 9 9 9 9 9 9 9 9 8 8 7 5 3 2 1 0 0 -0 0 -0 -1 -3 -3 -4 -5 -6 -6 -7 -8 -9 -9 -8
10 11 12 12 10 9 9 9 9 9 9 9 9 9 9 8 8 8 8 8 6 3 1 -1 -0 -1 -1 -1 -1 -3 -4 -4 -5 -5 -6 -7 -8 -9 -10 -10 -9 -10 -10
11 10 10 11 11 10 9 9 9 9 9 8 8 7 7 7 6 6 6 6 4 1 -1 -2 -3 -2 -4 -4 -4 -4 -5 -6 -7 -7 -8 -9 -9 -10 -11 -11 -12 -12 -13
11 11 10 10 11 10 10 9 9 8 8 7 6 5 4 3 1 1 0 0 0 -1 -2 -3 -4 -4 -3 -4 -5 -6 -7 -9 -9 -9 -9 -10 -10 -11 -11 -12 -13 -14 -15
9 10 10 10 10 10 9 9 8 7 6 4 4 2 -0 -2 -2 -2 -2 -2 -3 -2 -4 -5 -5 -4 -5 -8 -8 -9 -9 -10 -10 -10 -10 -11 -11 -12 -12 -13 -13 -14 -15
8 8 8 8 8 8 8 6 5 4 4 2 -0 -3 -4 -4 -5 -5 -4 -3 -5 -4 -4 -6 -7 -10 -11 -9 -8 -9 -10 -10 -10 -11 -12 -13 -13 -14 -15 -14 -14 -15 -15
5 5 4 4 3 2 2 -1 -1 -2 -2 -4 -5 -6 -6 -7 -6 -6 -6 -4 -4 -5 -8 -11 -11 -10 -9 -9 -10 -10 -11 -12 -12 -13 -14 -14 -15 -15 -15 -16 -17 -17 -17
3 2 2 1 0 -1 -2 -3 -4 -5 -4 -5 -4 -5 -5 -6 -9 -9 -6 -6 -8 -10 -8 -8 -9 -10 -10 -11 -11 -12 -13 -13 -13 -14 -15 -15 -16 -16 -17 -17 -18 -18 -19
-1 -2 -3 -3 -4 -4 -4 -5 -4 -4 -4 -4 -4 -5 -7 -9 -8 -10 -9 -9 -8 -8 -8 -8 -9 -10 -11 -12 -12 -13 -13 -14 -15 -16 -16 -16 -17 -17 -17 -18 -18 -19 -19
-4 -5 -6 -5 -6 -6 -6 -6 -9 -9 -8 -8 -8 -7 -6 -10 -9 -8 -8 -8 -8 -9 -8 -9 -11 -12 -12 -13 -13 -14 -15 -15 -16 -16 -17 -17 -17 -18 -18 -18 -19 -19 -19
-5 -5 -4 -4 -4 -4 -5 -5 -6 -7 -8 -12 -13 -12 -12 -10 -11 -9 -9 -9 -9 -10 -10 -12 -12 -13 -13 -14 -15 -15 -15 -16 -16 -17 -17 -17 -18 -18 -18 -19 -19 -19 -20
-3 -3 -4 -4 -5 -5 -6 -7 -8 -9 -9 -10 -11 -12 -12 -10 -9 -9 -10 -10 -10 -11 -12 -13 -13 -14 -14 -15 -15 -16 -16 -16 -17 -17 -17 -18 -18 -18 -18 -19 -19 -19 -20
-5 -5 -5 -5 -6 -6 -7 -6 -8 -9 -11 -12 -11 -11 -11 -10 -10 -11 -12 -12 -12 -13 -13 -13 -14 -14 -15 -15 -16 -16 -16 -17 -17 -17 -17 -18 -18 -18 -18 -18 -19 -19 -20
-5 -6 -6 -6 -7 -7 -7 -8 -9 -9 -11 -12 -12 -12 -12 -11 -11 -12 -12 -13 -13 -13 -14 -14 -15 -15 -16 -16 -16 -17 -17 -17 -17 -17 -17 -17 -17 -18 -18 -18 -19 -19 -20
-6 -6 -7 -7 -8 -8 -9 -9 -10 -10 -12 -12 -13 -13 -13 -12 -12 -12 -13 -14 -14 -14 -15 -15 -16 -16 -16 -16 -16 -17 -17 -17 -17 -17 -17 -17 -17 -18 -18 -18 -19 -19 -20
-6 -6 -6 -7 -7 -8 -9 -11 -12 -13 -13 -12 -13 -13 -13 -13 -14 -14 -14 -14 -15 -15 -15 -16 -16 -17 -17 -16 -17 -17 -17 -17 -17 -17 -17 -17 -17 -18 -18 -18 -19 -20 -20
-7 -7 -7 -8 -10 -10 -11 -12 -12 -12 -12 -12 -13 -13 -13 -14 -14 -14 -14 -15 -16 -16 -16 -17 -17 -17 -17 -17 -17 -17 -18 -17 -17 -17 -17 -17 -17 -18 -18 -19 -20 -20 -21
-9 -9 -10 -11 -11 -11 -11 -12 -12 -12 -12 -12 -13 -13 -13 -14 -14 -15 -15 -16 -16 -17 -17 -17 -17 -17 -17 -17 -17 -17 -17 -17 -17 -17 -17 -18 -18 -18 -18 -19 -19 -20 -20
-9 -10 -10 -11 -11 -11 -11 -12 -12 -13 -13 -13 -14 -14 -14 -15 -15 -16 -16 -17 -16 -16 -16 -17 -17 -17 -17 -17 -17 -17 -17 -17 -17 -18 -18 -18 -18 -18 -18 -18 -19 -19 -19

GFSGL_850_temp_114.txt.gz
Temp
10 9 9 9 9 9 9 9 9 10 10 10 10 10 10 10 10 10 10 10 9 9 9 9 9 8 8 8 8 8 8 7 7 8 8 8 8 7 8 8 8 8 7
10 9 9 9 9 10 9 10 10 9 10 10 10 10 10 10 10 10 10 10 9 9 9 9 8 8 8 8 8 7 7 7 7 8 7 7 7 7 7 7 7 6 6
11 9 8 9 9 9 9 10 9 9 9 10 10 9 10 10 10 10 10 10 9 9 9 8 8 8 8 7 7 7 7 7 7 7 7 7 7 7 5 5 5 5 4
11 9 8 8 9 9 9 9 9 9 9 9 9 9 9 10 9 9 10 9 9 9 8 8 8 7 8 7 7 7 7 7 7 7 7 6 5 5 5 5 3 3 2
10 9 9 8 8 8 8 8 9 9 9 9 8 8 8 9 9 9 9 9 9 9 8 7 8 8 8 8 7 7 7 7 7 6 5 4 3 2 2 3 2 1 1
11 10 9 8 8 8 8 8 8 8 9 9 9 9 8 8 8 9 9 9 8 8 8 8 8 8 7 7 7 7 6 6 5 4 3 2 1 0 -0 -1 -1 -1 -1
10 10 9 9 9 9 8 8 9 8 8 8 8 8 8 8 8 8 8 8 8 8 8 7 7 7 6 6 5 5 3 3 2 1 0 -1 -1 -2 -2 -3 -4 -4 -6
10 9 9 9 9 9 8 9 8 8 7 7 7 7 7 8 8 8 8 8 7 7 7 6 6 5 3 2 2 1 1 -0 -1 -1 -1 -1 -3 -4 -5 -5 -5 -6 -6
10 10 10 10 9 9 8 8 8 8 8 8 7 7 8 8 8 8 8 8 8 7 5 3 2 1 -1 -1 -1 -1 -2 -3 -4 -3 -3 -5 -5 -6 -7 -7 -6 -6 -7
10 10 10 10 11 10 9 8 8 8 8 7 7 7 7 7 8 8 8 8 7 5 2 -0 -1 -1 -2 -3 -3 -4 -4 -4 -5 -6 -6 -7 -7 -7 -7 -7 -8 -9 -10
10 10 9 9 10 9 8 8 8 8 8 7 7 7 6 6 7 7 6 6 6 3 -1 -3 -4 -4 -5 -5 -4 -3 -3 -4 -6 -6 -6 -7 -8 -8 -9 -10 -11 -11 -12
9 9 9 9 9 9 9 8 8 8 7 7 5 4 3 2 1 1 3 3 1 -0 -4 -4 -5 -6 -6 -5 -5 -5 -6 -7 -7 -8 -8 -9 -9 -10 -10 -11 -12 -13 -14
10 9 9 9 9 9 8 7 7 6 6 5 3 2 -0 -3 -4 -3 -2 -3 -3 -2 -4 -4 -6 -6 -5 -5 -4 -6 -7 -8 -8 -9 -9 -10 -10 -11 -12 -12 -13 -13 -14
6 7 7 6 8 8 6 5 4 3 3 1 2 -1 -4 -4 -4 -5 -5 -4 -3 -4 -6 -6 -5 -5 -6 -7 -8 -9 -9 -9 -9 -10 -10 -11 -12 -13 -13 -13 -13 -13 -13
3 2 3 3 3 5 2 1 1 -0 -0 -2 -2 -4 -4 -4 -4 -4 -4 -5 -6 -7 -7 -7 -7 -8 -8 -8 -9 -9 -10 -10 -10 -11 -12 -12 -13 -13 -13 -14 -14 -14 -15
1 0 -1 -0 -0 -1 -2 -4 -4 -3 -3 -3 -4 -2 -4 -5 -6 -6 -6 -6 -7 -6 -7 -7 -8 -8 -8 -9 -10 -10 -11 -11 -12 -12 -13 -13 -13 -13 -14 -14 -15 -15 -15
-2 -2 -3 -3 -3 -3 -4 -5 -6 -6 -5 -5 -5 -5 -5 -6 -7 -7 -6 -7 -8 -8 -7 -8 -8 -9 -9 -10 -11 -11 -11 -12 -13 -13 -13 -14 -14 -14 -14 -15 -15 -15 -15
-3 -5 -5 -5 -5 -5 -5 -5 -5 -6 -8 -9 -9 -8 -8 -8 -8 -7 -7 -7 -8 -10 -9 -9 -9 -10 -11 -11 -12 -12 -13 -14 -14 -14 -14 -14 -15 -15 -14 -14 -15 -16 -16
-6 -6 -5 -6 -6 -6 -6 -6 -7 -8 -9 -9 -10 -11 -11 -8 -8 -8 -9 -8 -8 -9 -10 -10 -11 -11 -12 -12 -13 -14 -14 -15 -15 -15 -15 -15 -15 -15 -15 -15 -16 -16 -17
-7 -7 -7 -7 -7 -7 -7 -7 -7 -7 -7 -8 -9 -8 -8 -8 -8 -9 -10 -10 -10 -10 -11 -11 -12 -12 -13 -13 -14 -14 -15 -15 -16 -16 -15 -15 -15 -15 -15 -16 -16 -16 -17
-7 -7 -7 -7 -7 -6 -6 -6 -7 -7 -8 -8 -9 -9 -9 -9 -9 -10 -10 -11 -11 -11 -12 -12 -13 -13 -14 -14 -15 -15 -15 -15 -15 -16 -16 -16 -15 -15 -16 -16 -16 -17 -17
-6 -7 -7 -6 -7 -7 -7 -7 -7 -8 -9 -9 -10 -11 -11 -10 -10 -10 -11 -11 -12 -12 -13 -14 -14 -14 -15 -15 -15 -15 -15 -16 -16 -16 -16 -16 -16 -16 -16 -16 -16 -17 -17
-6 -6 -6 -7 -7 -7 -7 -8 -9 -9 -10 -10 -10 -11 -12 -11 -11 -12 -12 -13 -13 -13 -14 -14 -14 -15 -15 -15 -15 -16 -16 -16 -16 -16 -16 -16 -16 -16 -16 -16 -17 -17 -17
-6 -6 -6 -7 -8 -8 -9 -9 -10 -10 -10 -11 -11 -12 -12 -13 -13 -13 -13 -13 -14 -14 -14 -15 -15 -15 -15 -16 -16 -16 -16 -16 -16 -16 -16 -16 -16 -16 -16 -17 -17 -17 -17
-7 -7 -8 -8 -9 -9 -10 -10 -11 -11 -11 -12 -12 -13 -13 -13 -13 -14 -14 -14 -14 -15 -15 -15 -15 -16 -16 -16 -16 -16 -16 -17 -17 -17 -17 -17 -17 -17 -17 -17 -17 -16 -17
-8 -8 -8 -9 -10 -10 -11 -11 -12 -12 -12 -13 -13 -13 -14 -14 -14 -14 -14 -14 -15 -15 -15 -16 -16 -16 -16 -16 -16 -17 -17 -17 -17 -17 -17 -17 -17 -17 -17 -17 -17 -17 -16

GFSGL_850_temp_117.txt.gz
Temp
11 12 11 9 9 9 9 9 9 10 10 10 10 10 10 11 10 10 10 10 10 11 11 10 9 9 9 9 8 8 8 8 8 8 7 7 7 7 7 7 7 7 7
10 11 10 9 9 9 9 9 9 9 9 10 10 10 10 10 10 11 10 10 10 9 9 8 8 8 8 8 8 8 7 7 7 7 7 7 7 7 7 6 6 5 5
10 10 9 9 10 9 9 9 9 9 10 10 10 10 10 10 10 10 10 10 10 9 10 9 8 8 8 8 8 8 7 7 7 7 7 7 6 6 5 4 3 3 2
9 9 9 9 10 9 9 9 9 9 9 10 10 9 9 9 10 10 9 10 9 9 8 8 8 8 7 8 8 7 7 7 7 7 7 7 6 5 3 2 2 1 1
10 9 9 10 10 9 9 9 9 9 9 9 9 9 9 9 9 9 9 9 9 9 8 8 8 8 8 8 7 7 7 7 7 7 6 5 3 2 1 0 -0 -1 -1
10 9 9 9 9 9 9 9 9 9 8 9 9 8 8 8 9 9 8 9 9 9 9 8 8 8 7 7 7 7 7 7 6 5 4 2 0 -1 -2 -1 -1 -1 -2
9 9 8 9 8 9 9 8 8 8 8 8 8 8 8 8 8 8 8 9 8 8 9 8 8 7 7 7 7 7 6 5 3 2 1 -1 -2 -2 -3 -3 -3 -3 -4
9 9 9 8 9 8 8 8 8 8 8 8 8 8 8 8 8 8 8 8 8 8 7 7 7 7 5 5 5 4 3 1 -0 -1 -2 -2 -3 -3 -3 -4 -5 -6 -6
9 9 9 9 8 8 8 8 8 8 8 7 7 7 8 8 7 8 8 8 7 7 6 5 4 3 2 1 2 1 -1 -2 -4 -4 -3 -3 -3 -4 -4 -4 -5 -6 -7
9 9 9 8 8 8 8 8 8 8 8 7 7 7 7 8 7 7 7 7 7 6 4 2 0 1 -2 -2 -1 -2 -2 -3 -3 -4 -5 -6 -5 -5 -6 -6 -7 -8 -9
9 9 9 8 8 8 8 8 8 8 8 7 7 7 7 7 7 7 6 6 7 5 2 -1 -3 -3 -3 -4 -4 -3 -4 -5 -6 -6 -6 -6 -7 -8 -8 -8 -9 -10 -11
8 9 8 8 8 8 8 8 8 8 7 7 7 6 6 6 6 6 6 5 3 1 -2 -4 -5 -5 -5 -6 -6 -7 -7 -7 -6 -7 -7 -8 -8 -9 -10 -10 -11 -12 -12
6 7 8 8 8 8 8 8 7 7 7 6 5 5 2 1 0 -0 0 0 -2 -2 -4 -4 -6 -7 -8 -8 -8 -7 -7 -7 -7 -8 -8 -9 -10 -10 -11 -11 -11 -12 -12
6 7 7 7 8 6 6 5 4 5 4 3 3 2 -1 -3 -3 -3 -3 -3 -3 -3 -4 -4 -6 -8 -7 -7 -7 -7 -8 -8 -8 -9 -9 -10 -11 -11 -11 -11 -11 -11 -12
1 1 2 4 3 4 4 3 3 1 3 1 1 -2 -3 -3 -4 -3 -3 -3 -3 -4 -4 -6 -7 -8 -8 -8 -8 -8 -9 -9 -9 -10 -11 -11 -12 -12 -12 -12 -12 -13 -13
-1 -0 -0 -0 0 1 0 -1 -2 -2 -2 -2 -2 -2 -3 -3 -5 -5 -5 -5 -5 -5 -5 -7 -8 -8 -8 -9 -9 -9 -10 -11 -11 -11 -12 -12 -12 -12 -13 -13 -13 -13 -13
-1 -2 -2 -1 -3 -5 -3 -2 -4 -5 -4 -4 -4 -5 -5 -6 -6 -6 -6 -6 -6 -7 -6 -8 -8 -8 -9 -9 -10 -10 -11 -11 -12 -12 -12 -12 -13 -13 -13 -13 -13 -13 -14
-4 -4 -3 -4 -4 -5 -4 -5 -6 -7 -8 -8 -7 -7 -6 -6 -6 -6 -6 -6 -8 -8 -8 -8 -9 -9 -10 -10 -11 -11 -11 -12 -13 -13 -13 -13 -13 -13 -14 -14 -14 -14 -14
-5 -6 -6 -5 -6 -6 -7 -7 -7 -8 -9 -10 -9 -9 -9 -8 -7 -7 -8 -7 -8 -8 -9 -9 -9 -10 -10 -11 -12 -12 -13 -13 -13 -13 -13 -14 -14 -14 -14 -15 -15 -14 -14
-6 -6 -6 -7 -7 -8 -8 -8 -8 -8 -8 -8 -8 -8 -8 -8 -8 -8 -9 -8 -9 -9 -10 -10 -11 -11 -12 -12 -13 -13 -13 -14 -14 -14 -14 -15 -15 -15 -15 -15 -15 -15 -15
-7 -8 -7 -8 -8 -8 -7 -7 -7 -7 -8 -9 -8 -10 -9 -8 -8 -9 -10 -10 -10 -10 -11 -11 -12 -12 -13 -13 -13 -14 -14 -14 -15 -15 -15 -15 -15 -15 -15 -15 -15 -15 -15
-7 -8 -8 -7 -7 -7 -7 -7 -8 -8 -9 -9 -10 -10 -10 -9 -10 -10 -11 -11 -11 -11 -12 -12 -12 -13 -13 -14 -14 -14 -15 -15 -16 -16 -16 -16 -16 -16 -16 -16 -15 -15 -15
-7 -7 -7 -7 -7 -7 -7 -8 -8 -9 -9 -9 -10 -11 -12 -11 -11 -11 -11 -11 -12 -12 -12 -13 -13 -14 -14 -15 -15 -15 -16 -16 -16 -16 -16 -16 -16 -16 -16 -16 -16 -15 -15
-7 -7 -7 -7 -7 -8 -8 -8 -9 -9 -10 -10 -11 -11 -11 -11 -11 -11 -12 -12 -13 -13 -13 -14 -14 -14 -15 -15 -16 -16 -16 -16 -16 -16 -16 -16 -16 -16 -16 -16 -16 -16 -16
-7 -7 -7 -7 -8 -8 -9 -10 -10 -10 -10 -11 -11 -11 -12 -12 -12 -13 -13 -13 -14 -14 -14 -14 -15 -15 -15 -16 -16 -16 -16 -17 -17 -17 -16 -16 -16 -16 -16 -16 -16 -16 -16
-7 -8 -8 -8 -9 -9 -9 -10 -10 -11 -11 -12 -12 -12 -13 -13 -13 -13 -14 -14 -14 -14 -15 -15 -15 -16 -16 -16 -16 -17 -17 -17 -17 -17 -17 -17 -17 -17 -17 -17 -16 -16 -16

GFSGL_850_temp_120.txt.gz
Temp
10 10 11 11 10 10 11 10 11 11 11 11 10 10 10 10 10 10 10 10 10 10 10 9 9 11 11 10 10 10 10 10 9 8 7 7 7 7 7 7 8 7 7
9 10 10 11 10 9 10 10 10 10 10 10 10 10 10 10 10 10 10 9 10 8 10 11 10 11 10 10 10 9 9 9 9 8 7 7 7 8 7 6 6 5 5
9 9 10 10 10 9 9 9 10 10 10 10 10 10 10 9 9 10 10 10 10 10 10 10 10 11 10 9 9 9 9 9 7 7 7 7 7 6 5 5 3 2 2
9 9 10 10 9 10 9 10 9 9 9 9 9 10 9 10 9 10 10 10 10 10 9 9 8 9 10 8 8 9 8 8 7 7 7 7 6 5 4 2 2 1 1
9 9 9 9 9 9 9 9 9 9 9 9 9 10 10 10 9 9 9 9 9 8 8 8 7 7 9 7 7 7 7 7 7 7 7 6 5 3 2 1 -0 -1 -1
9 9 9 9 9 9 9 9 9 9 9 9 9 9 9 9 9 9 9 9 8 8 8 7 7 8 8 7 7 7 7 7 7 7 6 5 3 1 -0 -1 -2 -2 -1
8 9 9 9 9 9 9 9 9 9 9 9 9 9 9 9 9 9 9 9 8 8 8 8 8 7 7 7 7 7 7 7 6 5 4 2 0 -2 -2 -2 -2 -2 -3
8 9 9 9 9 8 9 9 9 9 8 9 9 8 8 8 8 8 8 8 8 8 7 7 8 7 7 7 7 7 6 4 3 2 -0 -1 -2 -2 -2 -2 -3 -3 -6
7 8 9 9 9 8 9 9 9 9 8 8 8 8 8 8 8 8 8 8 7 7 6 7 7 7 6 6 6 5 3 1 -3 -3 -3 -3 -3 -3 -4 -3 -4 -5 -6
7 8 9 9 8 8 9 8 8 8 8 8 8 8 8 8 7 7 8 8 7 7 5 5 4 4 3 1 2 1 0 -3 -4 -4 -3 -5 -5 -4 -4 -5 -5 -6 -7
7 8 8 9 8 8 8 9 8 8 8 8 7 7 7 8 7 7 7 8 8 7 5 3 1 0 -1 -2 -2 -2 -1 -3 -4 -5 -5 -5 -5 -6 -6 -6 -7 -8 -9
7 6 8 8 8 8 8 8 8 8 8 7 7 7 6 6 6 6 6 6 6 6 3 -1 -3 -4 -4 -4 -3 -4 -4 -5 -6 -5 -5 -6 -7 -7 -8 -9 -9 -10 -10
3 6 7 8 8 7 8 8 7 7 7 7 6 6 4 3 3 3 4 5 3 3 -1 -4 -5 -5 -5 -5 -5 -6 -8 -6 -6 -6 -7 -8 -8 -9 -9 -10 -10 -10 -10
3 3 4 5 7 7 7 7 7 6 6 6 5 5 3 0 -0 -1 -0 -1 -2 -2 -4 -4 -4 -5 -5 -6 -8 -7 -6 -7 -7 -7 -8 -9 -10 -10 -10 -10 -10 -10 -12
0 -0 1 2 3 1 2 3 5 3 4 3 2 2 0 -2 -4 -3 -2 -2 -2 -2 -3 -5 -7 -6 -7 -8 -8 -8 -8 -8 -8 -9 -9 -10 -10 -10 -10 -10 -11 -11 -12
-1 -0 1 -0 -0 0 -1 -1 -0 1 2 -0 -1 -2 -2 -3 -3 -4 -4 -3 -4 -5 -5 -6 -8 -9 -9 -8 -8 -8 -9 -9 -10 -10 -10 -10 -11 -11 -11 -11 -12 -12 -13
-2 -2 -1 -1 -2 -2 -1 -3 -4 -4 -2 -3 -2 -4 -3 -4 -5 -6 -6 -5 -6 -5 -5 -6 -7 -8 -8 -9 -9 -9 -10 -10 -11 -11 -11 -11 -11 -12 -12 -12 -13 -13 -13
-4 -4 -3 -4 -3 -5 -3 -5 -8 -7 -8 -9 -7 -6 -7 -6 -6 -6 -6 -7 -8 -7 -6 -7 -8 -9 -9 -9 -10 -10 -11 -11 -11 -11 -12 -12 -12 -12 -12 -13 -13 -13 -13
-5 -5 -6 -6 -6 -8 -7 -8 -8 -8 -9 -10 -10 -9 -9 -8 -7 -8 -9 -8 -8 -8 -8 -9 -9 -9 -9 -10 -10 -11 -11 -11 -12 -12 -12 -12 -13 -13 -13 -13 -13 -13 -14
-7 -7 -7 -7 -8 -8 -9 -9 -10 -10 -11 -11 -11 -10 -9 -9 -9 -9 -9 -9 -9 -9 -9 -9 -10 -10 -10 -11 -11 -12 -12 -12 -13 -13 -13 -13 -13 -13 -13 -13 -14 -15 -17
-8 -8 -8 -8 -8 -8 -8 -8 -9 -9 -10 -10 -11 -11 -10 -9 -9 -10 -9 -9 -9 -10 -10 -10 -11 -11 -11 -12 -12 -13 -13 -13 -13 -14 -14 -14 -14 -14 -14 -14 -16 -16 -16
-9 -9 -9 -9 -9 -9 -9 -9 -9 -9 -9 -10 -9 -9 -9 -9 -9 -9 -10 -10 -10 -10 -11 -11 -11 -12 -12 -13 -13 -13 -14 -14 -14 -14 -14 -14 -15 -15 -15 -15 -15 -15 -17
-8 -8 -8 -9 -8 -9 -9 -9 -9 -10 -9 -9 -9 -10 -10 -10 -10 -10 -10 -10 -11 -11 -11 -12 -12 -12 -13 -13 -14 -14 -14 -14 -14 -15 -15 -15 -15 -15 -15 -16 -16 -16 -16
-8 -8 -8 -8 -9 -9 -9 -10 -10 -9 -9 -9 -10 -10 -10 -10 -10 -10 -11 -11 -12 -12 -12 -12 -13 -13 -14 -14 -14 -14 -14 -15 -15 -15 -16 -16 -16 -16 -16 -16 -16 -16 -15
-8 -8 -8 -9 -8 -8 -8 -9 -9 -9 -10 -10 -10 -11 -11 -11 -11 -11 -12 -12 -12 -12 -13 -14 -14 -14 -14 -14 -15 -15 -15 -15 -16 -16 -16 -16 -16 -16 -16 -16 -16 -16 -16
-8 -9 -9 -9 -9 -9 -9 -10 -10 -11 -11 -11 -11 -12 -12 -12 -12 -12 -12 -13 -13 -14 -14 -14 -14 -14 -15 -15 -15 -15 -16 -16 -16 -16 -16 -16 -17 -17 -17 -17 -17 -16 -16

GFSGL_850_temp_123.txt.gz
Temp
10 10 10 11 11 12 12 12 11 12 11 11 10 11 10 10 9 9 9 9 9 9 9 10 10 11 11 11 11 11 11 11 10 8 8 8 8 8 8 8 7 7 7
10 10 10 11 11 11 11 11 11 11 11 11 11 10 10 10 10 10 9 9 9 9 10 9 10 10 10 10 11 11 11 11 11 10 9 8 7 7 7 7 6 6 6
9 10 10 10 11 11 11 10 11 11 11 11 10 10 10 10 10 10 10 9 9 9 9 9 9 9 9 10 9 10 10 11 11 9 8 7 7 6 6 5 5 4 5
9 9 10 10 11 11 10 10 10 10 10 10 10 10 10 10 10 10 10 9 9 9 9 9 8 9 9 9 9 10 10 9 8 8 7 7 7 6 4 4 3 3 3
8 9 9 10 10 10 10 10 10 10 10 10 10 10 10 10 10 10 10 10 9 9 9 9 8 8 8 8 8 9 8 7 7 7 7 6 6 4 4 2 1 0 -1
8 8 9 9 10 10 10 10 10 9 10 9 9 9 9 10 10 9 9 9 9 9 9 8 8 8 8 8 7 7 8 7 7 7 6 6 5 3 2 1 -0 -1 -1
7 8 9 9 10 10 10 9 9 9 9 10 9 9 9 9 10 9 10 9 9 8 9 9 8 8 8 8 6 6 7 7 6 6 6 5 4 2 0 -1 -2 -2 -2
7 8 8 9 10 10 10 9 9 9 9 9 9 9 9 9 9 9 9 9 8 8 8 7 7 7 7 7 6 6 6 6 5 5 3 3 0 -1 -2 -2 -3 -4 -4
6 8 8 9 10 10 9 9 9 9 9 9 9 8 9 9 8 8 9 8 8 7 7 6 6 7 6 6 7 7 6 4 2 1 1 -2 -3 -3 -3 -3 -5 -5 -6
6 7 7 9 9 9 9 9 9 9 9 8 8 9 8 9 8 8 8 8 7 7 5 5 5 6 6 5 6 6 5 2 -0 -2 -3 -3 -3 -4 -6 -5 -4 -4 -5
5 7 7 8 9 9 9 9 9 9 9 8 8 8 8 8 8 7 7 8 8 6 5 4 3 3 3 2 3 2 3 -1 -3 -3 -3 -5 -6 -6 -5 -5 -5 -5 -6
3 6 7 7 8 9 8 8 9 8 8 8 8 7 6 6 6 6 6 6 7 7 5 2 0 -0 -0 -0 -0 -2 -2 -2 -3 -4 -5 -6 -5 -6 -6 -6 -7 -7 -7
0 5 4 6 8 8 8 8 8 8 8 7 7 6 5 4 3 4 5 6 5 5 2 -1 -3 -3 -3 -3 -2 -3 -4 -5 -5 -6 -6 -6 -7 -7 -7 -7 -7 -7 -8
-1 1 1 3 3 6 7 8 7 7 7 7 6 5 3 2 2 2 2 2 1 1 -2 -3 -4 -4 -4 -4 -5 -5 -6 -8 -7 -7 -7 -8 -9 -9 -9 -8 -9 -9 -10
-1 -1 -0 1 1 0 3 3 4 4 5 7 5 4 3 -0 -2 -2 -1 -1 -1 -2 -3 -4 -5 -5 -6 -6 -8 -8 -8 -8 -7 -8 -8 -9 -9 -9 -9 -9 -9 -11 -13
-2 -2 -1 0 -0 0 -1 -2 -2 -0 1 2 2 2 -0 -1 -5 -4 -3 -3 -4 -4 -5 -6 -7 -7 -7 -8 -8 -8 -8 -8 -8 -8 -9 -9 -9 -10 -10 -10 -10 -11 -13
-4 -4 -3 -3 -2 -1 -1 -2 -4 -5 -3 -2 -2 -2 -2 -1 -3 -4 -5 -5 -6 -6 -5 -7 -8 -9 -8 -8 -8 -8 -8 -9 -9 -9 -9 -10 -10 -10 -11 -11 -11 -11 -11
-5 -5 -5 -5 -5 -5 -5 -5 -5 -6 -7 -8 -8 -6 -6 -5 -5 -5 -5 -6 -7 -7 -7 -8 -9 -10 -10 -9 -8 -9 -9 -10 -10 -10 -10 -10 -11 -11 -12 -13 -13 -12 -12
-6 -6 -6 -7 -7 -8 -8 -8 -8 -9 -10 -11 -11 -9 -9 -7 -7 -8 -8 -8 -8 -10 -11 -11 -11 -10 -10 -10 -9 -10 -10 -10 -11 -11 -11 -11 -11 -13 -13 -13 -15 -14 -14
-8 -8 -7 -8 -9 -9 -9 -9 -11 -11 -11 -11 -10 -10 -10 -9 -9 -10 -10 -10 -10 -11 -11 -11 -11 -10 -10 -10 -9 -10 -11 -11 -11 -11 -11 -12 -12 -13 -15 -15 -15 -15 -15
-9 -9 -9 -9 -9 -10 -11 -11 -11 -11 -11 -12 -12 -12 -11 -9 -11 -11 -11 -10 -11 -11 -10 -11 -10 -10 -10 -11 -12 -13 -13 -12 -12 -12 -13 -12 -13 -14 -13 -15 -15 -16 -16
-10 -11 -10 -10 -10 -10 -10 -10 -10 -10 -10 -11 -12 -12 -11 -9 -10 -11 -13 -13 -12 -11 -12 -10 -10 -11 -12 -13 -13 -13 -12 -12 -13 -13 -13 -13 -14 -15 -14 -15 -16 -17 -17
-10 -10 -10 -11 -10 -10 -10 -10 -10 -10 -11 -11 -11 -12 -11 -11 -11 -11 -11 -10 -11 -12 -12 -11 -11 -11 -11 -12 -13 -13 -13 -13 -13 -13 -14 -14 -14 -14 -14 -16 -17 -17 -18
-9 -9 -9 -10 -10 -10 -10 -10 -11 -12 -12 -11 -11 -10 -10 -11 -12 -11 -11 -11 -11 -11 -11 -11 -12 -12 -12 -12 -13 -13 -13 -13 -14 -14 -14 -14 -14 -14 -14 -15 -16 -18 -18
-9 -9 -9 -10 -9 -10 -10 -10 -11 -11 -11 -11 -11 -11 -12 -12 -11 -11 -11 -11 -11 -12 -12 -12 -12 -12 -13 -13 -13 -13 -14 -14 -14 -14 -14 -15 -15 -15 -15 -16 -16 -17 -17
-9 -9 -10 -10 -10 -10 -10 -10 -11 -12 -11 -12 -12 -12 -12 -11 -12 -12 -12 -12 -12 -12 -12 -13 -13 -13 -14 -14 -14 -14 -14 -14 -14 -15 -15 -15 -15 -16 -16 -17 -17 -17 -18

GFSGL_850_temp_126.txt.gz
Temp
10 10 10 11 12 12 12 12 13 12 12 11 11 12 11 11 11 10 9 9 9 10 9 9 10 10 11 13 13 13 12 12 10 9 9 8 8 8 8 8 8 8 8
8 10 10 10 11 11 12 12 11 12 12 11 11 11 11 11 11 10 9 9 9 9 9 9 9 10 11 12 12 12 12 11 12 12 9 8 8 8 8 7 8 7 6
9 9 10 10 10 11 11 12 12 11 12 11 11 11 11 10 11 10 10 9 9 9 9 9 9 9 10 10 11 11 11 10 11 11 10 8 8 7 7 6 6 6 5
9 9 9 9 10 11 11 11 11 11 12 11 11 11 11 10 11 10 10 10 9 9 9 9 9 9 9 10 10 10 11 11 10 10 9 8 7 7 6 6 6 4 3
8 8 8 9 9 10 10 11 11 10 11 10 10 10 10 10 10 10 10 10 9 9 9 9 9 8 9 9 10 10 11 10 10 9 7 7 6 7 7 7 5 2 1
6 8 8 9 9 10 10 11 10 10 11 10 10 10 9 10 10 10 10 9 9 9 9 9 8 8 8 8 9 10 10 9 9 8 8 7 7 6 6 5 2 0 -1
5 8 8 8 9 9 10 10 10 9 10 9 9 9 9 9 10 10 9 9 9 9 8 9 8 8 9 9 9 8 8 8 8 8 8 6 6 6 5 2 0 -0 -1
3 6 7 7 8 9 9 10 10 9 9 10 9 9 9 10 9 9 9 9 9 9 8 9 8 8 8 9 8 8 7 6 7 6 5 6 6 4 1 -0 -1 -2 -3
3 4 7 7 8 8 9 10 10 9 9 9 9 9 9 9 9 8 8 8 9 8 7 7 8 8 8 8 8 7 6 6 6 5 5 3 1 0 -2 -2 -3 -3 -3
2 4 6 6 7 8 8 10 9 9 9 9 9 8 9 9 7 8 8 8 8 7 6 6 6 7 7 7 6 7 6 4 4 3 0 -1 -2 -3 -3 -3 -4 -4 -5
2 3 5 7 6 6 7 9 9 9 9 8 8 8 8 8 7 7 7 8 7 7 6 5 4 5 6 6 4 5 5 3 0 -1 -2 -3 -4 -5 -5 -6 -5 -4 -4
0 2 5 5 5 6 7 9 9 9 8 8 8 8 7 7 7 6 6 7 7 6 5 4 3 3 3 3 3 2 1 -1 -3 -3 -3 -5 -6 -7 -6 -5 -5 -5 -6
-0 1 2 3 3 5 6 9 9 8 8 8 7 7 6 5 5 4 5 5 5 5 4 2 1 1 1 -0 -1 -2 -3 -3 -3 -4 -5 -6 -7 -6 -6 -6 -6 -6 -7
-2 -1 -1 -0 2 3 3 1 8 8 7 8 7 6 5 4 4 3 3 3 2 2 -0 -1 -1 -2 -2 -3 -5 -6 -5 -5 -5 -5 -6 -6 -6 -6 -6 -7 -7 -7 -7
-3 -2 -2 -1 -1 0 1 -0 0 7 6 8 7 7 6 4 2 2 2 1 1 0 -2 -4 -4 -4 -5 -6 -7 -7 -6 -7 -6 -6 -6 -7 -7 -8 -8 -8 -8 -9 -9
-4 -3 -4 -3 -3 -2 -1 -1 -2 0 2 2 4 4 2 2 -0 -0 0 -0 -2 -4 -4 -5 -6 -6 -7 -7 -7 -8 -8 -7 -7 -7 -7 -8 -8 -8 -8 -8 -9 -9 -10
-6 -5 -5 -4 -4 -4 -5 -2 -4 -6 -3 -3 -3 -3 -3 -3 -5 -5 -4 -4 -4 -5 -4 -5 -6 -7 -7 -7 -8 -8 -8 -8 -8 -8 -8 -9 -9 -9 -9 -10 -10 -9 -10
-7 -6 -6 -6 -6 -6 -7 -8 -6 -7 -8 -8 -7 -6 -6 -7 -6 -6 -7 -6 -6 -6 -5 -6 -7 -8 -9 -7 -8 -8 -8 -8 -9 -9 -9 -9 -10 -10 -10 -10 -10 -11 -11
-7 -8 -8 -8 -7 -8 -9 -9 -10 -10 -11 -11 -11 -11 -11 -11 -10 -9 -9 -7 -7 -8 -9 -9 -10 -10 -8 -8 -8 -8 -8 -9 -9 -9 -10 -10 -10 -10 -10 -10 -11 -11 -12
-9 -9 -9 -9 -9 -10 -10 -11 -11 -12 -12 -12 -12 -12 -11 -10 -9 -9 -8 -8 -9 -10 -10 -10 -10 -9 -9 -8 -8 -9 -9 -9 -9 -10 -10 -10 -11 -11 -11 -12 -12 -12 -13
-10 -10 -9 -10 -10 -11 -11 -12 -12 -12 -12 -12 -12 -11 -10 -9 -10 -10 -10 -10 -11 -11 -10 -10 -9 -9 -10 -10 -10 -10 -9 -10 -10 -10 -11 -11 -11 -12 -12 -13 -13 -13 -14
-10 -10 -10 -11 -11 -11 -11 -11 -11 -12 -12 -12 -12 -11 -10 -10 -10 -11 -11 -11 -11 -10 -10 -10 -10 -11 -10 -10 -10 -10 -10 -10 -11 -12 -11 -12 -12 -12 -13 -13 -13 -14 -14
-11 -11 -11 -11 -11 -11 -11 -11 -11 -11 -12 -12 -12 -12 -11 -11 -11 -11 -12 -12 -11 -11 -11 -10 -9 -10 -11 -11 -11 -10 -10 -11 -11 -12 -12 -12 -13 -13 -14 -13 -14 -14 -14
-11 -11 -11 -11 -11 -11 -11 -11 -12 -12 -12 -12 -12 -12 -12 -12 -11 -11 -11 -11 -10 -10 -11 -11 -10 -11 -11 -10 -10 -11 -11 -12 -12 -12 -13 -13 -13 -13 -14 -14 -14 -14 -15
-10 -10 -10 -11 -11 -12 -12 -12 -12 -12 -12 -11 -11 -11 -11 -11 -11 -11 -11 -11 -11 -11 -10 -10 -11 -11 -11 -12 -12 -12 -12 -13 -13 -13 -14 -14 -14 -14 -15 -15 -15 -15 -15
-10 -10 -11 -11 -12 -12 -12 -12 -12 -12 -12 -12 -12 -12 -12 -11 -11 -11 -11 -11 -11 -11 -11 -12 -12 -12 -12 -12 -13 -13 -13 -13 -14 -14 -14 -14 -15 -15 -15 -15 -15 -16 -16

GFSGL_850_temp_129.txt.gz
Temp
12 11 11 11 11 10 11 12 12 12 12 12 11 11 11 11 11 11 11 11 9 10 10 10 10 9 10 9 10 11 11 10 9 9 9 9 8 8 8 8 8 8 8
11 11 11 10 11 10 10 11 12 12 12 12 11 11 12 12 12 11 11 10 10 9 10 9 9 9 9 9 9 10 12 10 11 10 8 8 8 8 8 8 8 7 8
10 11 11 10 10 10 11 10 11 12 12 12 11 11 12 12 12 11 11 10 10 10 9 9 9 9 9 9 9 9 12 11 11 11 10 8 8 7 7 7 6 6 6
10 11 10 9 9 9 10 10 11 11 11 12 11 11 12 12 11 11 10 10 10 9 9 9 10 9 9 9 9 9 11 12 11 11 10 8 8 7 6 6 6 6 5
9 10 9 9 9 9 9 10 10 11 11 11 11 11 12 11 11 11 10 10 10 10 9 9 9 9 9 9 10 10 9 11 11 10 10 8 8 7 6 6 5 4 3
8 8 8 8 8 9 9 10 10 10 11 11 11 10 11 11 11 11 10 10 10 10 9 9 9 9 9 9 9 9 9 9 9 9 9 8 9 8 7 6 5 4 2
6 7 6 7 8 8 9 9 9 10 11 10 10 10 10 10 10 10 10 10 9 9 9 9 9 9 9 9 8 8 8 9 9 9 9 8 8 8 7 6 4 2 1
4 4 5 5 6 8 8 8 9 10 10 10 10 10 10 10 9 9 9 9 9 9 9 9 8 9 9 9 8 8 8 8 7 7 7 7 6 6 6 5 2 0 -1
-0 1 3 4 5 7 8 7 8 10 10 9 10 10 10 9 9 9 9 9 9 9 9 9 8 8 9 8 7 8 8 8 7 7 7 7 7 6 4 2 0 -1 -2
0 1 2 3 4 6 7 7 7 8 10 9 9 9 9 9 9 8 8 8 8 9 8 8 6 6 8 8 7 8 8 7 7 7 7 6 5 3 1 -1 -1 -1 -1
1 2 3 3 3 4 6 6 7 7 9 9 9 9 8 8 9 8 8 8 8 8 7 5 4 4 5 6 7 7 7 5 4 5 5 2 -0 -1 -2 -3 -3 -2 -3
-0 1 3 2 2 4 5 5 6 6 7 9 9 8 8 8 7 7 7 7 7 8 6 5 4 3 4 5 5 6 6 5 3 2 0 -1 -2 -3 -4 -3 -4 -4 -4
-1 -1 -0 -1 0 3 3 4 4 5 3 9 8 8 8 7 7 6 6 6 6 6 5 4 3 1 2 3 4 3 3 1 -0 -2 -2 -4 -4 -5 -4 -4 -5 -5 -5
-3 -2 -2 -2 -1 1 1 1 2 1 2 4 8 8 7 7 6 6 5 4 3 4 4 3 1 1 1 1 -0 -1 -2 -2 -2 -2 -3 -5 -7 -6 -5 -5 -5 -6 -6
-5 -4 -4 -3 -3 -2 -1 -1 -1 0 1 -1 5 8 8 7 6 5 5 4 3 3 3 -0 -1 -1 -2 -3 -4 -4 -4 -4 -4 -5 -5 -7 -6 -6 -6 -7 -7 -7 -6
-6 -6 -6 -5 -4 -4 -4 -3 -2 -1 1 -1 -2 2 4 4 3 2 2 2 1 1 0 -1 -4 -5 -4 -4 -5 -6 -6 -5 -6 -6 -6 -6 -6 -7 -6 -7 -7 -8 -8
-7 -7 -7 -6 -6 -6 -6 -6 -5 -5 -2 -1 -3 -3 -2 0 -3 -2 -2 -2 -4 -4 -3 -5 -6 -7 -7 -7 -6 -6 -8 -8 -7 -6 -6 -7 -7 -7 -7 -8 -9 -9 -9
-8 -8 -8 -8 -8 -8 -7 -8 -9 -8 -7 -7 -7 -5 -6 -7 -6 -6 -6 -5 -7 -6 -5 -6 -6 -7 -7 -7 -8 -9 -8 -8 -8 -8 -8 -8 -8 -8 -9 -9 -9 -9 -9
-9 -9 -9 -9 -9 -9 -9 -10 -10 -10 -10 -10 -10 -10 -10 -10 -9 -8 -7 -5 -5 -6 -7 -7 -8 -8 -9 -9 -10 -8 -8 -8 -8 -8 -8 -9 -9 -9 -9 -9 -9 -9 -10
-10 -10 -10 -10 -10 -10 -10 -11 -11 -11 -11 -11 -11 -11 -11 -11 -10 -10 -8 -8 -8 -8 -8 -8 -9 -9 -9 -8 -8 -9 -9 -9 -9 -9 -9 -9 -9 -10 -10 -10 -10 -10 -10
-10 -11 -11 -11 -11 -11 -11 -12 -11 -12 -12 -12 -12 -11 -11 -10 -10 -9 -9 -8 -9 -8 -8 -8 -8 -8 -8 -8 -9 -9 -9 -9 -10 -10 -10 -10 -10 -10 -10 -10 -10 -11 -11
-11 -11 -11 -11 -11 -11 -12 -12 -11 -11 -11 -11 -11 -10 -9 -9 -10 -10 -10 -10 -10 -10 -9 -9 -10 -10 -9 -9 -9 -9 -9 -10 -10 -10 -10 -10 -10 -11 -11 -11 -11 -11 -12
-10 -11 -11 -11 -12 -12 -11 -11 -11 -11 -11 -11 -11 -10 -10 -10 -11 -11 -11 -11 -10 -9 -10 -10 -9 -9 -9 -10 -10 -10 -10 -10 -10 -11 -10 -11 -11 -12 -12 -12 -12 -13 -13
-10 -10 -11 -11 -11 -11 -11 -12 -12 -11 -11 -11 -11 -11 -11 -11 -11 -11 -11 -11 -10 -10 -10 -10 -10 -9 -10 -10 -10 -10 -11 -11 -11 -12 -12 -12 -12 -12 -13 -13 -14 -14 -14
-10 -10 -11 -11 -11 -11 -11 -12 -12 -12 -12 -12 -11 -11 -11 -11 -12 -11 -11 -11 -11 -11 -11 -11 -11 -11 -11 -11 -11 -12 -12 -12 -12 -12 -12 -12 -13 -13 -13 -14 -14 -14 -15
-10 -11 -11 -11 -11 -12 -12 -12 -12 -12 -12 -12 -12 -11 -11 -12 -12 -12 -11 -11 -11 -11 -11 -11 -11 -12 -12 -12 -12 -12 -12 -12 -12 -13 -13 -13 -14 -14 -14 -14 -15 -15 -15

GFSGL_850_temp_132.txt.gz
Temp
12 12 12 12 12 11 11 11 10 11 12 12 12 12 11 11 11 11 11 11 11 10 10 10 10 10 10 9 9 9 10 10 10 9 9 9 8 8 9 9 9 9 9
11 11 12 12 12 11 11 11 10 10 11 11 12 12 12 11 11 11 10 10 10 10 10 10 10 9 9 10 9 9 10 9 10 10 8 8 8 8 9 9 8 8 8
10 11 11 11 11 11 11 11 11 10 10 11 12 12 12 12 11 11 11 10 10 10 10 9 9 9 10 9 9 9 9 9 10 11 9 8 8 8 8 8 8 7 7
9 10 10 10 11 11 10 10 11 11 10 10 11 11 11 12 11 11 11 11 11 10 10 9 9 9 9 9 10 9 9 9 9 9 9 8 8 8 7 7 5 6 6
9 9 10 10 10 10 9 9 10 10 10 10 11 11 11 12 12 11 11 11 11 10 10 9 9 9 9 9 9 9 9 9 8 9 9 8 7 8 8 7 5 6 5
7 8 8 9 9 9 9 9 9 10 9 10 10 11 12 11 12 11 11 11 11 10 10 10 10 9 9 9 9 9 9 10 9 9 9 9 8 7 8 7 5 5 3
6 6 7 7 8 8 8 9 8 9 9 10 10 10 11 11 11 11 11 10 10 9 10 9 9 9 9 9 9 9 9 9 9 10 10 9 9 9 9 8 6 5 4
4 4 5 5 6 7 7 8 8 8 9 9 10 10 11 11 11 11 10 10 10 9 10 9 9 9 9 9 9 9 9 9 9 9 9 9 9 9 8 8 6 5 2
3 3 3 3 5 5 5 6 7 7 9 9 9 10 10 10 10 11 10 10 9 9 9 9 9 9 9 8 8 8 9 8 8 8 7 7 7 7 7 7 4 4 0
2 2 1 2 3 4 4 6 6 6 7 8 9 10 10 10 10 10 10 9 9 9 9 9 9 8 8 8 7 9 8 8 8 7 7 6 6 6 5 4 4 4 0
1 1 1 -0 1 2 4 5 6 6 6 7 8 7 9 9 10 9 9 9 9 9 8 8 8 8 8 6 6 8 8 7 8 7 7 6 5 4 3 3 1 -0 -0
-1 -1 -2 -3 -0 1 3 5 5 4 4 5 5 7 8 8 9 9 9 8 8 8 8 7 7 7 5 4 5 6 7 7 6 5 3 3 1 0 -1 -1 -2 -3 -3
-4 -4 -4 -3 -1 0 2 4 3 1 2 3 3 5 3 8 8 8 8 7 7 7 6 6 6 5 4 3 3 3 4 4 3 3 2 0 -1 -1 -2 -2 -3 -5 -4
-7 -6 -4 -3 -2 -2 0 1 0 0 0 1 1 1 2 2 7 8 7 7 6 5 5 5 4 2 2 3 2 2 2 2 2 1 -1 -2 -3 -3 -3 -5 -3 -4 -4
-6 -6 -5 -5 -4 -4 -3 -2 -2 -2 -1 -1 -0 1 2 -1 4 6 8 7 6 5 4 3 1 -0 0 0 -1 -0 -0 -1 -1 -2 -2 -4 -4 -5 -5 -5 -5 -5 -4
-7 -7 -7 -6 -6 -5 -5 -5 -4 -3 -3 -2 -1 -1 -0 -0 -2 -2 4 5 4 4 2 1 -1 -2 -1 -2 -2 -3 -4 -3 -3 -3 -4 -5 -5 -5 -5 -6 -6 -6 -6
-8 -8 -8 -8 -7 -7 -7 -7 -7 -7 -6 -5 -3 -2 -1 0 -5 -6 -4 -1 -0 0 1 -2 -2 -3 -4 -5 -5 -5 -5 -5 -5 -5 -7 -7 -5 -6 -6 -6 -7 -7 -7
-9 -9 -9 -9 -9 -9 -8 -9 -9 -9 -9 -9 -8 -5 -4 -3 -5 -7 -8 -7 -7 -5 -4 -5 -5 -6 -6 -6 -7 -6 -6 -7 -7 -8 -7 -6 -7 -6 -7 -8 -8 -8 -8
-9 -10 -10 -10 -10 -10 -10 -10 -10 -10 -10 -10 -10 -10 -10 -10 -10 -10 -9 -8 -8 -9 -8 -7 -7 -7 -7 -6 -6 -7 -7 -9 -8 -7 -7 -7 -7 -7 -8 -8 -9 -9 -9
-10 -10 -10 -11 -11 -11 -10 -10 -10 -10 -11 -11 -11 -11 -11 -11 -10 -9 -8 -7 -7 -7 -7 -7 -7 -7 -7 -7 -7 -8 -8 -7 -7 -8 -8 -8 -9 -8 -8 -9 -9 -9 -10
-10 -11 -11 -11 -11 -11 -11 -11 -11 -11 -11 -11 -11 -11 -11 -10 -10 -10 -9 -9 -9 -9 -8 -8 -9 -8 -8 -9 -8 -8 -8 -8 -8 -8 -8 -9 -9 -9 -9 -10 -10 -11 -11
-11 -11 -11 -11 -11 -11 -11 -11 -11 -11 -11 -11 -12 -11 -10 -10 -10 -10 -10 -10 -9 -9 -9 -9 -9 -9 -8 -8 -8 -8 -8 -9 -9 -9 -9 -9 -10 -10 -10 -10 -11 -11 -11
-10 -11 -11 -11 -11 -11 -11 -11 -11 -12 -12 -12 -11 -11 -10 -11 -10 -10 -10 -10 -10 -10 -10 -10 -9 -9 -9 -9 -9 -9 -8 -9 -9 -9 -9 -10 -10 -11 -11 -11 -11 -12 -12
-10 -10 -11 -11 -11 -11 -11 -11 -11 -11 -11 -11 -11 -11 -11 -11 -11 -11 -10 -10 -10 -10 -10 -10 -10 -10 -10 -10 -10 -10 -10 -10 -10 -11 -11 -11 -11 -11 -12 -12 -12 -12 -13
-10 -11 -11 -11 -11 -11 -11 -12 -12 -12 -12 -12 -12 -12 -12 -11 -11 -11 -11 -11 -10 -10 -10 -10 -11 -11 -11 -11 -11 -11 -11 -11 -11 -12 -12 -12 -12 -12 -13 -13 -13 -13 -13
-11 -11 -11 -11 -12 -12 -12 -12 -12 -12 -12 -12 -12 -12 -12 -12 -12 -12 -12 -12 -11 -11 -11 -11 -11 -11 -11 -11 -12 -11 -11 -12 -12 -12 -12 -13 -13 -13 -14 -14 -14 -14 -14

GFSGL_850_temp_135.txt.gz
Temp
9 10 11 12 11 11 11 11 11 11 11 12 12 12 12 12 12 12 12 12 11 11 11 11 11 11 10 10 10 10 9 9 8 8 9 10 10 9 9 9 9 9 9
9 9 10 11 11 11 11 11 11 11 11 11 11 11 12 12 12 12 11 11 11 11 11 11 11 11 10 10 10 10 9 8 8 9 9 9 8 8 8 9 9 8 8
8 9 10 10 10 10 11 11 11 11 11 11 10 11 11 11 12 12 11 11 11 11 11 11 10 10 10 10 10 9 9 9 8 9 9 8 8 7 7 8 8 7 7
7 7 8 9 10 10 10 10 10 10 10 11 11 11 11 11 11 11 12 11 11 11 10 10 9 10 9 9 9 9 9 8 8 8 8 9 8 7 6 7 7 6 7
5 5 7 8 9 9 9 10 10 10 10 9 9 10 10 10 11 11 11 11 11 10 10 10 9 9 9 9 9 9 8 8 8 8 8 8 7 6 6 6 6 6 5
2 3 5 7 8 8 9 9 10 10 10 9 8 9 10 11 11 11 11 11 12 11 10 10 10 10 9 9 9 9 9 8 8 8 8 8 8 7 7 7 6 5 2
2 3 4 4 6 7 7 8 8 9 9 9 9 8 9 10 10 10 11 11 11 11 11 10 10 10 9 9 9 9 9 9 10 10 10 9 9 8 8 7 7 6 6
1 2 3 3 5 6 6 6 7 8 8 8 8 8 9 9 10 11 10 10 11 11 10 10 9 9 9 9 9 9 9 9 9 9 9 10 10 9 8 9 8 6 4
1 1 1 2 3 4 5 5 5 6 7 7 8 8 9 9 10 10 10 10 10 10 10 10 8 9 9 9 9 9 9 8 8 9 9 8 8 8 8 7 6 6 2
-1 -1 -0 0 1 3 4 4 4 5 5 5 7 7 7 8 9 10 10 10 10 10 10 9 9 9 9 9 9 8 8 8 8 8 8 8 7 7 7 6 7 6 5
-3 -2 -2 -1 -0 1 2 3 4 4 5 4 6 6 6 7 8 9 9 10 9 10 9 8 8 9 9 8 9 8 8 8 7 7 6 6 7 4 5 5 5 5 5
-3 -3 -2 -2 -1 -0 0 2 3 3 3 2 4 5 5 5 6 8 8 9 9 9 9 9 8 9 9 8 7 6 6 6 5 4 3 3 5 4 5 3 2 2 1
-4 -4 -4 -3 -3 -3 -2 -1 1 1 1 1 2 2 4 4 4 6 9 6 8 8 8 8 8 8 8 7 6 3 3 3 3 3 3 2 2 3 1 -0 -1 -0 -1
-5 -5 -5 -5 -4 -4 -4 -3 -2 -2 -1 0 0 0 1 2 2 3 3 5 5 7 7 7 7 6 6 5 4 2 1 1 2 3 2 1 0 -0 -1 -1 -1 -2 -2
-7 -7 -7 -7 -7 -7 -7 -6 -5 -4 -3 -2 -1 -1 -2 -0 0 1 1 1 2 5 7 6 4 4 3 2 1 -0 -0 0 1 1 0 -1 -1 -2 -3 -4 -3 -5 -5
-8 -8 -9 -9 -9 -9 -8 -7 -7 -6 -3 -2 -2 -3 -2 -2 -1 -1 -0 0 -0 -0 2 5 3 2 2 0 -1 -1 -1 -1 -1 -2 -3 -3 -4 -4 -5 -8 -7 -5 -4
-10 -10 -10 -10 -10 -9 -9 -9 -8 -7 -7 -5 -4 -4 -5 -4 -2 -2 -1 -1 -2 -4 -4 0 2 -0 -1 -1 -2 -2 -3 -3 -3 -3 -3 -4 -5 -6 -8 -6 -6 -6 -6
-10 -10 -11 -11 -10 -10 -10 -10 -9 -8 -9 -9 -9 -8 -8 -7 -7 -6 -5 -3 -4 -6 -6 -6 -4 -3 -3 -4 -4 -4 -5 -5 -5 -5 -6 -7 -8 -8 -7 -6 -7 -6 -6
-11 -11 -11 -11 -11 -10 -10 -10 -10 -10 -10 -10 -10 -10 -10 -10 -10 -10 -8 -6 -5 -6 -8 -8 -8 -8 -7 -7 -6 -6 -6 -6 -7 -7 -7 -8 -7 -6 -7 -7 -7 -7 -7
-11 -11 -11 -11 -11 -11 -11 -11 -10 -10 -10 -10 -10 -11 -10 -10 -10 -10 -9 -8 -7 -7 -8 -8 -9 -9 -8 -7 -7 -7 -7 -8 -8 -9 -7 -7 -7 -7 -7 -8 -8 -8 -8
-10 -11 -11 -11 -11 -11 -11 -11 -11 -11 -11 -11 -11 -12 -11 -10 -11 -11 -11 -10 -9 -9 -9 -8 -8 -8 -8 -8 -8 -8 -9 -10 -8 -7 -7 -8 -8 -8 -8 -9 -9 -9 -9
-10 -11 -11 -11 -11 -11 -11 -11 -11 -11 -12 -12 -12 -12 -12 -11 -12 -12 -11 -11 -11 -10 -10 -9 -9 -8 -8 -8 -9 -9 -8 -8 -8 -8 -8 -9 -9 -9 -9 -10 -10 -10 -10
-10 -11 -11 -11 -12 -11 -11 -11 -12 -12 -12 -12 -12 -12 -12 -12 -12 -11 -11 -11 -11 -10 -10 -9 -9 -9 -9 -8 -8 -8 -8 -8 -9 -9 -9 -9 -9 -10 -10 -10 -11 -11 -11
-11 -11 -11 -11 -11 -12 -12 -12 -12 -12 -12 -12 -12 -12 -12 -12 -12 -12 -11 -11 -11 -11 -11 -11 -10 -9 -9 -9 -9 -10 -9 -9 -10 -10 -10 -10 -10 -11 -11 -11 -12 -12 -12
-11 -11 -12 -12 -12 -12 -12 -12 -12 -12 -12 -12 -12 -12 -12 -12 -12 -12 -12 -12 -12 -12 -11 -11 -10 -10 -10 -10 -10 -10 -10 -10 -11 -11 -11 -11 -11 -11 -12 -12 -12 -12 -12
-12 -12 -12 -12 -12 -12 -12 -12 -12 -13 -12 -12 -12 -12 -12 -12 -12 -12 -12 -12 -12 -12 -11 -11 -11 -11 -11 -11 -11 -11 -11 -12 -12 -12 -12 -12 -12 -12 -12 -12 -13 -13 -14